M I D A S
Marine Information and Data Acquisition System
Tripno 2141 of the Zeeleeuw from 2011-07-08 05:02:26 to 2011-07-08 15:22:40
Back to CruiseResearch ActivitiesStationsMapUnderway DataData graphs

EquipmentUnitsComment
TimeDGPSUTC
LatitudeDGPSDM.mWGS84
LongitudeDGPSDM.mWGS84
TemperatureSBE03/SBE38deg celciusITS90
ConductivitySBE21S/mITS90
SalinitySBE21 Practical Salinity Units
ChlorophylAChelsea fluorimeterg/lCalibrated in Aceton
Missing or incorrect values are displayed as -999
Sea surface data collected by the RV Zeeleeuw from 2011-07-08 05:06:23 to 2011-07-08 15:38:19
                                                                                    Next 1000 lines
Time Latitude Longitude Temperature Conductivity Salinity ChlorophylA
2011-07-08 05:06:33 51°13.637 2°56.012 22.1061 0.176588 0.976194 -3.020363
2011-07-08 05:06:38 51°13.638 2°56.007 22.1206 0.176588 0.976228 -3.020363
2011-07-08 05:06:43 51°13.64 2°56.001 22.1404 0.176588 0.976228 -3.020363
2011-07-08 05:06:48 51°13.642 2°55.994 22.1397 0.176588 0.976245 -3.020363
2011-07-08 05:06:54 51°13.644 2°55.985 22.1352 0.176588 0.976279 -3.020363
2011-07-08 05:06:58 51°13.646 2°55.978 22.1513 0.176588 0.976296 -3.020363
2011-07-08 05:07:03 51°13.648 2°55.969 22.1503 0.176588 0.976279 -3.020363
2011-07-08 05:07:08 51°13.651 2°55.96 22.1524 0.176588 0.976279 -3.020363
2011-07-08 05:07:13 51°13.653 2°55.95 22.1582 0.176588 0.976279 -3.020363
2011-07-08 05:07:18 51°13.656 2°55.941 22.1507 0.176588 0.976262 -3.020363
2011-07-08 05:07:23 51°13.658 2°55.931 22.1506 0.176588 0.976262 -3.020363
2011-07-08 05:07:28 51°13.661 2°55.921 22.1495 0.176588 0.976245 -3.020363
2011-07-08 05:07:33 51°13.663 2°55.911 22.1536 0.176588 0.976262 -3.020363
2011-07-08 05:07:39 51°13.666 2°55.899 22.1501 0.176588 0.976262 -3.020363
2011-07-08 05:07:43 51°13.668 2°55.891 22.1557 0.176588 0.976262 -3.020363
2011-07-08 05:07:49 51°13.671 2°55.878 22.1531 0.176588 0.976279 -3.020363
2011-07-08 05:07:54 51°13.673 2°55.868 22.1573 0.176588 0.976296 -3.020363
2011-07-08 05:07:59 51°13.676 2°55.858 22.1452 0.176588 0.976313 -3.020363
2011-07-08 05:08:03 51°13.677 2°55.85 22.1594 0.176588 0.97633 -3.020363
2011-07-08 05:08:09 51°13.68 2°55.839 22.1569 0.176588 0.976347 -3.020363
2011-07-08 05:08:14 51°13.682 2°55.83 22.155 0.176588 0.976347 -3.020363
2011-07-08 05:08:19 51°13.684 2°55.821 22.1507 0.176588 0.976364 -3.020363
2011-07-08 05:08:23 51°13.686 2°55.813 22.1537 0.176588 0.976364 -3.020363
2011-07-08 05:08:29 51°13.688 2°55.803 22.1584 0.176588 0.976381 -3.020363
2011-07-08 05:08:34 51°13.689 2°55.794 22.1589 0.176588 0.976381 -3.020363
2011-07-08 05:08:39 51°13.691 2°55.785 22.156 0.176588 0.976381 -3.020363
2011-07-08 05:08:43 51°13.692 2°55.779 22.1497 0.176588 0.976381 -3.020363
2011-07-08 05:08:48 51°13.693 2°55.77 22.157 0.176588 0.976381 -3.020363
2011-07-08 05:08:54 51°13.694 2°55.761 22.1578 0.176588 0.976398 -3.020363
2011-07-08 05:08:58 51°13.694 2°55.755 22.1617 0.176588 0.976398 -3.020363
2011-07-08 05:09:03 51°13.695 2°55.749 22.1353 0.176588 0.976398 -3.020363
2011-07-08 05:09:08 51°13.695 2°55.743 22.1516 0.176485 0.975801 -3.020363
2011-07-08 05:09:13 51°13.695 2°55.74 22.1802 0.176485 0.975801 -3.020363
2011-07-08 05:09:19 51°13.695 2°55.737 22.1657 0.176588 0.976398 -3.020363
2011-07-08 05:09:24 51°13.695 2°55.736 22.1627 0.176588 0.976415 -3.020363
2011-07-08 05:09:28 51°13.696 2°55.735 22.1634 0.176588 0.976432 -3.020363
2011-07-08 05:09:33 51°13.696 2°55.735 22.1645 0.176588 0.976449 -3.020363
2011-07-08 05:09:38 51°13.697 2°55.735 22.1679 0.176588 0.976449 -3.020363
2011-07-08 05:09:43 51°13.698 2°55.735 22.1856 0.176588 0.976449 -3.020363
2011-07-08 05:09:48 51°13.699 2°55.737 22.1924 0.176588 0.976432 -3.020363
2011-07-08 05:09:52 51°13.701 2°55.738 22.1854 0.176588 0.976415 -3.020363
2011-07-08 05:09:57 51°13.704 2°55.74 22.1867 0.176588 0.976398 -3.020363
2011-07-08 05:10:02 51°13.706 2°55.741 22.1809 0.176588 0.976381 -3.020363
2011-07-08 05:10:07 51°13.709 2°55.742 22.1819 0.176588 0.976364 -3.020363
2011-07-08 05:10:12 51°13.712 2°55.743 22.1824 0.176588 0.976364 -3.020363
2011-07-08 05:10:16 51°13.714 2°55.744 22.1829 0.176588 0.976364 -3.020363
2011-07-08 05:10:21 51°13.718 2°55.744 22.2003 0.176485 0.975767 -3.020363
2011-07-08 05:10:26 51°13.722 2°55.744 22.2099 0.176588 0.976415 -3.020363
2011-07-08 05:10:31 51°13.727 2°55.742 22.1915 0.176588 0.976483 -3.020363
2011-07-08 05:10:36 51°13.731 2°55.74 22.1673 0.176588 0.976551 -3.020363
2011-07-08 05:10:40 51°13.734 2°55.737 22.1679 0.176588 0.976551 -3.020363
2011-07-08 05:10:46 51°13.74 2°55.734 22.1647 0.176588 0.976602 -3.020363
2011-07-08 05:10:51 51°13.744 2°55.73 22.1666 0.176588 0.976602 -3.020363
2011-07-08 05:10:56 51°13.749 2°55.727 22.1644 0.176588 0.976602 -3.020363
2011-07-08 05:11:00 51°13.753 2°55.723 22.1594 0.176588 0.976585 -3.020363
2011-07-08 05:11:05 51°13.759 2°55.718 22.1578 0.176588 0.976568 -3.020363
2011-07-08 05:11:10 51°13.765 2°55.711 22.1455 0.176588 0.976568 -3.020363
2011-07-08 05:11:15 51°13.772 2°55.705 22.1564 0.176588 0.976551 -3.020363
2011-07-08 05:11:20 51°13.779 2°55.698 22.1443 0.176588 0.976517 -3.020363
2011-07-08 05:11:24 51°13.785 2°55.692 22.121 0.176588 0.9765 -3.020363
2011-07-08 05:11:29 51°13.793 2°55.685 22.144 0.176588 0.976483 -3.020363
2011-07-08 05:11:34 51°13.801 2°55.676 22.1494 0.176588 0.976483 -3.020363
2011-07-08 05:11:40 51°13.811 2°55.666 22.1201 0.176588 0.976483 -3.020363
2011-07-08 05:11:45 51°13.82 2°55.657 22.1072 0.176588 0.976483 -3.020363
2011-07-08 05:11:49 51°13.828 2°55.65 22.1097 0.176485 0.97592 -3.020363
2011-07-08 05:11:55 51°13.839 2°55.64 22.1383 0.176588 0.976551 -3.020363
2011-07-08 05:12:00 51°13.849 2°55.632 22.1095 0.176588 0.976585 -3.020363
2011-07-08 05:12:05 51°13.86 2°55.623 22.1072 0.176588 0.976636 -3.020363
2011-07-08 05:12:09 51°13.869 2°55.616 22.1282 0.176588 0.976636 -3.020363
2011-07-08 05:12:14 51°13.88 2°55.608 22.1503 0.176588 0.976636 -3.020363
2011-07-08 05:12:19 51°13.892 2°55.599 22.137 0.176588 0.97667 -3.020363
2011-07-08 05:12:26 51°13.908 2°55.587 22.1625 0.176588 0.976653 -3.020363
2011-07-08 05:12:29 51°13.915 2°55.582 22.1231 0.176588 0.97667 -3.020363
2011-07-08 05:12:35 51°13.93 2°55.571 22.1612 0.176588 0.97667 -3.020363
2011-07-08 05:12:40 51°13.942 2°55.562 22.1424 0.176588 0.97667 -3.020363
2011-07-08 05:12:45 51°13.954 2°55.553 22.1253 0.176588 0.97667 -3.020363
2011-07-08 05:12:50 51°13.966 2°55.543 22.1248 0.176588 0.97667 -3.020363
2011-07-08 05:12:54 51°13.976 2°55.536 22.1468 0.176588 0.97667 -3.020363
2011-07-08 05:13:00 51°13.991 2°55.526 22.1186 0.176588 0.976687 -3.020363
2011-07-08 05:13:05 51°14.004 2°55.517 22.1426 0.176588 0.976704 -3.020363
2011-07-08 05:13:10 51°14.017 2°55.508 22.1326 0.176588 0.976704 -3.020363
2011-07-08 05:13:14 51°14.027 2°55.501 22.1572 0.176588 0.976704 -3.020363
2011-07-08 05:13:20 51°14.043 2°55.49 22.1393 0.176588 0.976721 -3.020363
2011-07-08 05:13:25 51°14.055 2°55.481 22.156 0.176588 0.976738 -3.020363
2011-07-08 05:13:30 51°14.068 2°55.472 22.1645 0.176588 0.976772 -3.020363
2011-07-08 05:13:34 51°14.078 2°55.464 22.1682 0.176485 0.976192 -3.020363
2011-07-08 05:13:40 51°14.093 2°55.453 22.1662 0.176485 0.976192 -3.020363
2011-07-08 05:13:45 51°14.106 2°55.443 22.1669 0.176485 0.976192 -3.020363
2011-07-08 05:13:50 51°14.119 2°55.434 22.1565 0.176588 0.976806 -3.020363
2011-07-08 05:13:55 51°14.132 2°55.423 22.1658 0.176588 0.976806 -3.020363
2011-07-08 05:14:00 51°14.145 2°55.414 22.1751 0.176485 0.976226 -3.020363
2011-07-08 05:14:05 51°14.157 2°55.403 22.168 0.176588 0.97684 -3.020363
2011-07-08 05:14:10 51°14.17 2°55.392 22.1708 0.176588 0.97684 -3.020363
2011-07-08 05:14:15 51°14.183 2°55.382 22.1754 0.176485 0.976243 -3.020363
2011-07-08 05:14:19 51°14.194 2°55.373 22.1653 0.176485 0.97626 -3.020363
2011-07-08 05:14:25 51°14.209 2°55.359 22.1728 0.176485 0.976277 -3.020363
2011-07-08 05:14:30 51°14.222 2°55.348 22.1867 0.176485 0.976294 -3.020363
2011-07-08 05:14:35 51°14.235 2°55.336 22.1642 0.176485 0.976311 -3.020363
2011-07-08 05:14:39 51°14.246 2°55.326 22.1602 0.176485 0.976311 -3.020363
2011-07-08 05:14:45 51°14.261 2°55.311 22.1898 0.176485 0.976328 -3.020363
2011-07-08 05:14:49 51°14.272 2°55.301 22.1738 0.176485 0.976362 -3.020363
2011-07-08 05:14:55 51°14.287 2°55.285 22.1629 0.176485 0.976396 -3.020363
2011-07-08 05:14:59 51°14.297 2°55.274 22.1635 0.176485 0.976396 -3.020363
2011-07-08 05:15:05 51°14.313 2°55.258 22.1663 0.176588 0.977028 -3.020363
2011-07-08 05:15:10 51°14.325 2°55.244 22.1512 0.176588 0.977028 -3.020363
2011-07-08 05:15:15 51°14.339 2°55.23 22.154 0.176485 0.976431 -3.020363
2011-07-08 05:15:19 51°14.349 2°55.218 22.1438 0.176485 0.976448 -3.020363
2011-07-08 05:15:25 51°14.366 2°55.201 22.1609 0.176485 0.976465 -3.020363
2011-07-08 05:15:30 51°14.379 2°55.187 22.1256 0.176485 0.976482 -3.020363
2011-07-08 05:15:35 51°14.392 2°55.173 22.1226 0.176485 0.976482 -3.020363
2011-07-08 05:15:39 51°14.403 2°55.161 22.1541 0.176485 0.976482 -3.020363
2011-07-08 05:15:44 51°14.417 2°55.147 22.1458 0.176485 0.976499 -3.020363
2011-07-08 05:15:50 51°14.434 2°55.13 22.1777 0.176485 0.976499 -3.020363
2011-07-08 05:15:55 51°14.448 2°55.115 22.1218 0.176485 0.976516 -3.020363
2011-07-08 05:15:59 51°14.459 2°55.103 22.1608 0.176485 0.976516 -3.020363
2011-07-08 05:16:05 51°14.476 2°55.086 22.1916 0.176485 0.976516 -3.020363
2011-07-08 05:16:10 51°14.49 2°55.071 22.1735 0.176485 0.976516 -3.020363
2011-07-08 05:16:15 51°14.504 2°55.055 22.1223 0.176485 0.97655 -3.020363
2011-07-08 05:16:19 51°14.516 2°55.041 22.1079 0.176485 0.976533 -3.020363
2011-07-08 05:16:25 51°14.533 2°55.024 22.1239 0.176485 0.97655 -3.020363
2011-07-08 05:16:30 51°14.549 2°55.009 22.1487 0.176485 0.976533 -3.020363
2011-07-08 05:16:35 51°14.565 2°54.997 22.1457 0.176485 0.97655 -3.020363
2011-07-08 05:16:39 51°14.578 2°54.987 22.1414 0.176485 0.97655 -3.020363
2011-07-08 05:16:45 51°14.598 2°54.973 22.1652 0.176485 0.97655 -3.020363
2011-07-08 05:16:49 51°14.611 2°54.963 22.1689 0.176485 0.97655 -3.020363
2011-07-08 05:16:55 51°14.631 2°54.949 22.1543 0.176485 0.976567 -3.020363
2011-07-08 05:16:59 51°14.643 2°54.938 22.1538 0.176485 0.976567 -3.020363
2011-07-08 05:17:05 51°14.663 2°54.922 22.182 0.176485 0.976584 -3.020363
2011-07-08 05:17:10 51°14.679 2°54.909 22.1724 0.176485 0.976584 -3.020363
2011-07-08 05:17:15 51°14.694 2°54.895 22.1818 0.176485 0.976584 -3.020363
2011-07-08 05:17:19 51°14.707 2°54.884 22.1291 0.176485 0.976601 -3.020363
2011-07-08 05:17:25 51°14.724 2°54.865 22.1552 0.176485 0.976601 -3.020363
2011-07-08 05:17:30 51°14.739 2°54.849 22.137 0.176485 0.976601 -3.020363
2011-07-08 05:17:35 51°14.754 2°54.835 22.1555 0.176485 0.976601 -3.020363
2011-07-08 05:17:39 51°14.767 2°54.823 22.1498 0.176485 0.976601 -3.020363
2011-07-08 05:17:44 51°14.782 2°54.809 22.1641 0.176485 0.976601 -3.020363
2011-07-08 05:17:49 51°14.798 2°54.794 22.1578 0.176485 0.976618 -3.020363
2011-07-08 05:17:55 51°14.816 2°54.776 22.1607 0.176485 0.976635 -3.020363
2011-07-08 05:17:59 51°14.828 2°54.763 22.1392 0.176485 0.976635 -3.020363
2011-07-08 05:18:05 51°14.845 2°54.744 22.1584 0.176485 0.976635 -3.020363
2011-07-08 05:18:10 51°14.86 2°54.728 22.146 0.176485 0.976635 -3.020363
2011-07-08 05:18:15 51°14.875 2°54.713 22.1536 0.176485 0.976652 -3.020363
2011-07-08 05:18:19 51°14.886 2°54.7 22.1271 0.176485 0.976652 -3.020363
2011-07-08 05:18:25 51°14.904 2°54.681 22.1504 0.176485 0.976652 -3.020363
2011-07-08 05:18:30 51°14.919 2°54.666 22.1461 0.176485 0.976652 -3.020363
2011-07-08 05:18:35 51°14.934 2°54.65 22.1672 0.176485 0.976652 -3.020363
2011-07-08 05:18:39 51°14.946 2°54.638 22.1527 0.176485 0.976652 -3.020363
2011-07-08 05:18:45 51°14.964 2°54.62 22.1386 0.176485 0.976669 -3.020363
2011-07-08 05:18:50 51°14.979 2°54.604 22.1414 0.176485 0.976686 -3.020363
2011-07-08 05:18:55 51°14.994 2°54.588 22.1752 0.176485 0.976686 -3.020363
2011-07-08 05:19:00 51°15.009 2°54.572 22.1351 0.176485 0.976703 -3.020363
2011-07-08 05:19:05 51°15.023 2°54.556 22.1596 0.176485 0.97672 -3.020363
2011-07-08 05:19:10 51°15.038 2°54.54 22.1591 0.176485 0.97672 -3.020363
2011-07-08 05:19:15 51°15.052 2°54.523 22.1387 0.176485 0.976737 -3.020363
2011-07-08 05:19:20 51°15.066 2°54.505 22.1632 0.176485 0.976737 -3.020363
2011-07-08 05:19:25 51°15.08 2°54.488 22.1211 0.176485 0.976737 -3.020363
2011-07-08 05:19:30 51°15.094 2°54.471 22.1243 0.176485 0.976737 -3.020363
2011-07-08 05:19:35 51°15.109 2°54.455 22.1284 0.176485 0.976737 -3.020363
2011-07-08 05:19:39 51°15.121 2°54.442 22.1276 0.176485 0.976737 -3.020363
2011-07-08 05:19:45 51°15.139 2°54.423 22.1455 0.176485 0.976754 -3.020363
2011-07-08 05:19:50 51°15.154 2°54.407 22.131 0.176485 0.976771 -3.020363
2011-07-08 05:19:55 51°15.169 2°54.392 22.1433 0.176485 0.976788 -3.020363
2011-07-08 05:19:59 51°15.181 2°54.38 22.1279 0.176485 0.976788 -3.020363
2011-07-08 05:20:04 51°15.196 2°54.365 22.1583 0.176485 0.976805 -3.020363
2011-07-08 05:20:10 51°15.215 2°54.346 22.1396 0.176485 0.976805 -3.020363
2011-07-08 05:20:15 51°15.23 2°54.33 22.1544 0.176485 0.976822 -3.020363
2011-07-08 05:20:19 51°15.242 2°54.318 22.1163 0.176485 0.976839 -3.020363
2011-07-08 05:20:24 51°15.256 2°54.302 22.1407 0.176485 0.976839 -3.020363
2011-07-08 05:20:30 51°15.274 2°54.282 22.1235 0.176485 0.976839 -3.020363
2011-07-08 05:20:35 51°15.289 2°54.266 22.1216 0.176485 0.976856 -3.020363
2011-07-08 05:20:39 51°15.3 2°54.252 22.1291 0.176485 0.976856 -3.020363
2011-07-08 05:20:45 51°15.317 2°54.232 22.1416 0.176485 0.976856 -3.020363
2011-07-08 05:20:49 51°15.328 2°54.219 22.1158 0.176485 0.976856 -3.020363
2011-07-08 05:20:55 51°15.345 2°54.198 22.1363 0.176485 0.976873 -3.020363
2011-07-08 05:20:59 51°15.357 2°54.184 22.1083 0.176485 0.97689 -3.020363
2011-07-08 05:21:05 51°15.373 2°54.164 22.1339 0.176485 0.97689 -3.020363
2011-07-08 05:21:10 51°15.387 2°54.146 22.123 0.176485 0.97689 -3.020363
2011-07-08 05:21:15 51°15.402 2°54.129 22.1048 0.176485 0.976908 -3.020363
2011-07-08 05:21:19 51°15.413 2°54.116 22.1209 0.176485 0.976908 -3.020363
2011-07-08 05:21:25 51°15.431 2°54.096 22.1341 0.176485 0.976925 -3.020363
2011-07-08 05:21:30 51°15.445 2°54.08 22.1055 0.176485 0.976942 -3.020363
2011-07-08 05:21:35 51°15.46 2°54.063 22.1313 0.176485 0.976959 -3.020363
2011-07-08 05:21:39 51°15.472 2°54.051 22.1393 0.176485 0.976959 -3.020363
2011-07-08 05:21:45 51°15.489 2°54.031 22.1499 0.176485 0.976959 -3.020363
2011-07-08 05:21:49 51°15.501 2°54.018 22.1365 0.176485 0.976976 -3.020363
2011-07-08 05:21:55 51°15.517 2°53.997 22.1473 0.176485 0.976976 -3.020363
2011-07-08 05:21:59 51°15.528 2°53.983 22.1403 0.176485 0.976993 -3.020363
2011-07-08 05:22:05 51°15.544 2°53.961 22.129 0.176485 0.976993 -3.020363
2011-07-08 05:22:10 51°15.558 2°53.943 22.1264 0.176485 0.976993 -3.020363
2011-07-08 05:22:15 51°15.571 2°53.924 22.1223 0.176485 0.976993 -3.020363
2011-07-08 05:22:19 51°15.581 2°53.909 22.1161 0.176485 0.976993 -3.020363
2011-07-08 05:22:25 51°15.597 2°53.886 22.1447 0.176485 0.976993 -3.020363
2011-07-08 05:22:30 51°15.609 2°53.867 22.1076 0.176485 0.976993 -3.020363
2011-07-08 05:22:35 51°15.622 2°53.847 22.1362 0.176485 0.97701 -3.020363
2011-07-08 05:22:39 51°15.632 2°53.832 22.1345 0.176485 0.97701 -3.020363
2011-07-08 05:22:45 51°15.647 2°53.808 22.1232 0.176485 0.977027 -3.020363
2011-07-08 05:22:49 51°15.657 2°53.792 22.1419 0.176485 0.977027 -3.020363
2011-07-08 05:22:55 51°15.672 2°53.769 22.1055 0.176485 0.977044 -3.020363
2011-07-08 05:22:59 51°15.682 2°53.753 22.1003 0.176485 0.977061 -3.020363
2011-07-08 05:23:05 51°15.697 2°53.73 22.1357 0.176382 0.976481 -3.020363
2011-07-08 05:23:10 51°15.709 2°53.711 22.0988 0.176382 0.976481 -3.020363
2011-07-08 05:23:15 51°15.722 2°53.692 22.1178 0.176382 0.976481 -3.020363
2011-07-08 05:23:19 51°15.733 2°53.677 22.0947 0.176382 0.976498 -3.020363
2011-07-08 05:23:25 51°15.748 2°53.654 22.1342 0.176485 0.977095 -3.020363
2011-07-08 05:23:29 51°15.759 2°53.64 22.0993 0.176485 0.977112 -3.020363
2011-07-08 05:23:35 51°15.775 2°53.618 22.144 0.176382 0.976532 -3.020363
2011-07-08 05:23:39 51°15.786 2°53.604 22.1091 0.176382 0.976532 -3.020363
2011-07-08 05:23:45 51°15.803 2°53.582 22.1407 0.176382 0.976532 -3.020363
2011-07-08 05:23:49 51°15.813 2°53.568 22.0931 0.176382 0.976549 -3.020363
2011-07-08 05:23:55 51°15.83 2°53.546 22.1382 0.176382 0.976549 -3.020363
2011-07-08 05:23:59 51°15.841 2°53.532 22.1016 0.176485 0.977163 -3.020363
2011-07-08 05:24:05 51°15.857 2°53.51 22.1479 0.176382 0.976566 -3.020363
2011-07-08 05:24:10 51°15.871 2°53.493 22.1317 0.176382 0.976566 -3.020363
2011-07-08 05:24:15 51°15.884 2°53.474 22.1249 0.176382 0.9766 -3.020363
2011-07-08 05:24:19 51°15.895 2°53.46 22.0974 0.176382 0.976617 -3.020363
2011-07-08 05:24:25 51°15.911 2°53.437 22.1183 0.176485 0.977197 -3.020363
2011-07-08 05:24:30 51°15.924 2°53.42 22.1227 0.176382 0.9766 -3.020363
2011-07-08 05:24:35 51°15.938 2°53.402 22.1123 0.176382 0.976617 -3.020363
2011-07-08 05:24:39 51°15.949 2°53.388 22.1148 0.176382 0.976617 -3.020363
2011-07-08 05:24:45 51°15.966 2°53.367 22.1202 0.176382 0.976634 -3.020363
2011-07-08 05:24:50 51°15.98 2°53.35 22.1193 0.176382 0.976651 -3.020363
2011-07-08 05:24:55 51°15.994 2°53.334 22.124 0.176382 0.976685 -3.020363
2011-07-08 05:24:59 51°16.006 2°53.321 22.1168 0.176382 0.976702 -3.020363
2011-07-08 05:25:04 51°16.02 2°53.305 22.117 0.176382 0.976719 -3.020363
2011-07-08 05:25:10 51°16.038 2°53.286 22.1184 0.176382 0.976719 -3.020363
2011-07-08 05:25:15 51°16.053 2°53.271 22.1086 0.176382 0.976736 -3.020363
2011-07-08 05:25:19 51°16.066 2°53.259 22.1071 0.176382 0.976753 -3.020363
2011-07-08 05:25:25 51°16.085 2°53.242 22.1252 0.176382 0.976753 -3.020363
2011-07-08 05:25:30 51°16.1 2°53.228 22.1289 0.176382 0.97677 -3.020363
2011-07-08 05:25:35 51°16.117 2°53.216 22.1282 0.176382 0.97677 -3.020363
2011-07-08 05:25:39 51°16.13 2°53.206 22.1345 0.176382 0.97677 -3.020363
2011-07-08 05:25:45 51°16.15 2°53.191 22.133 0.176382 0.976804 -3.020363
2011-07-08 05:25:49 51°16.163 2°53.181 22.139 0.176382 0.976787 -3.020363
2011-07-08 05:25:55 51°16.183 2°53.167 22.1144 0.176382 0.976804 -3.020363
2011-07-08 05:25:59 51°16.196 2°53.157 22.1215 0.176382 0.976804 -3.020363
2011-07-08 05:26:05 51°16.216 2°53.143 22.1262 0.176382 0.976822 -3.020363
2011-07-08 05:26:10 51°16.232 2°53.131 22.1151 0.176382 0.976822 -3.020363
2011-07-08 05:26:15 51°16.249 2°53.119 22.1384 0.176382 0.976822 -3.020363
2011-07-08 05:26:19 51°16.263 2°53.111 22.1262 0.176382 0.976839 -3.020363
2011-07-08 05:26:25 51°16.283 2°53.096 22.1231 0.176382 0.976856 -3.020363
2011-07-08 05:26:30 51°16.299 2°53.085 22.1297 0.176382 0.976856 -3.020363
2011-07-08 05:26:35 51°16.316 2°53.072 22.1304 0.176382 0.976873 -3.020363
2011-07-08 05:26:39 51°16.329 2°53.063 22.1239 0.176382 0.976873 -3.020363
2011-07-08 05:26:44 51°16.345 2°53.05 22.1171 0.176382 0.976907 -3.020363
2011-07-08 05:26:50 51°16.365 2°53.036 22.134 0.176382 0.976924 -3.020363
2011-07-08 05:26:55 51°16.382 2°53.023 22.1346 0.176382 0.976924 -3.020363
2011-07-08 05:26:59 51°16.395 2°53.013 22.1049 0.176382 0.976941 -3.020363
2011-07-08 05:27:04 51°16.411 2°53.001 22.1264 0.176382 0.976958 -3.020363
2011-07-08 05:27:10 51°16.431 2°52.985 22.1389 0.176382 0.976958 -3.020363
2011-07-08 05:27:15 51°16.447 2°52.973 22.113 0.176382 0.976975 -3.020363
2011-07-08 05:27:19 51°16.46 2°52.963 22.1325 0.176382 0.976975 -3.020363
2011-07-08 05:27:25 51°16.479 2°52.948 22.1257 0.176382 0.976992 -3.020363
2011-07-08 05:27:30 51°16.496 2°52.935 22.1313 0.176382 0.976992 -3.020363
2011-07-08 05:27:35 51°16.512 2°52.922 22.1072 0.176382 0.977009 -3.020363
2011-07-08 05:27:39 51°16.524 2°52.912 22.138 0.176382 0.977009 -3.020363
2011-07-08 05:27:44 51°16.541 2°52.899 22.1358 0.176382 0.977026 -3.020363
2011-07-08 05:27:49 51°16.556 2°52.885 22.1224 0.176382 0.977043 -3.020363
2011-07-08 05:27:55 51°16.575 2°52.869 22.124 0.176382 0.977043 -3.020363
2011-07-08 05:27:59 51°16.588 2°52.858 22.1232 0.176382 0.97706 -3.020363
2011-07-08 05:28:05 51°16.607 2°52.841 22.1342 0.176382 0.977077 -3.020363
2011-07-08 05:28:10 51°16.623 2°52.828 22.1279 0.176382 0.977077 -3.020363
2011-07-08 05:28:15 51°16.638 2°52.815 22.1365 0.176382 0.977077 -3.020363
2011-07-08 05:28:19 51°16.651 2°52.804 22.1452 0.176382 0.977094 -3.020363
2011-07-08 05:28:25 51°16.67 2°52.788 22.1216 0.176382 0.977112 -3.020363
2011-07-08 05:28:30 51°16.686 2°52.774 22.1306 0.176382 0.977129 -3.020363
2011-07-08 05:28:35 51°16.702 2°52.761 22.1138 0.176382 0.977146 -3.020363
2011-07-08 05:28:39 51°16.715 2°52.75 22.1311 0.176382 0.977146 -3.020363
2011-07-08 05:28:45 51°16.734 2°52.735 22.1287 0.176382 0.977163 -3.020363
2011-07-08 05:28:50 51°16.75 2°52.722 22.1199 0.176382 0.97718 -3.020363
2011-07-08 05:28:55 51°16.766 2°52.71 22.1375 0.176382 0.97718 -3.020363
2011-07-08 05:28:59 51°16.78 2°52.7 22.1336 0.176382 0.977214 -3.020363
2011-07-08 05:29:04 51°16.796 2°52.688 22.1308 0.176382 0.977214 -3.020363
2011-07-08 05:29:10 51°16.816 2°52.674 22.136 0.176382 0.977214 -3.020363
2011-07-08 05:29:15 51°16.833 2°52.662 22.1331 0.176382 0.977231 -3.020363
2011-07-08 05:29:19 51°16.846 2°52.653 22.1416 0.176382 0.977231 -3.020363
2011-07-08 05:29:25 51°16.866 2°52.638 22.1395 0.176382 0.977248 -3.020363
2011-07-08 05:29:30 51°16.883 2°52.627 22.1352 0.176382 0.977265 -3.020363
2011-07-08 05:29:35 51°16.899 2°52.615 22.1298 0.176382 0.977265 -3.020363
2011-07-08 05:29:39 51°16.913 2°52.606 22.137 0.176382 0.977265 -3.020363
2011-07-08 05:29:44 51°16.929 2°52.594 22.145 0.176382 0.977282 -3.020363
2011-07-08 05:29:49 51°16.946 2°52.582 22.132 0.176382 0.977299 -3.020363
2011-07-08 05:29:55 51°16.966 2°52.567 22.14 0.176382 0.977299 -3.020363
2011-07-08 05:29:59 51°16.979 2°52.557 22.1489 0.176382 0.977299 -3.020363
2011-07-08 05:30:05 51°16.999 2°52.541 22.1407 0.176382 0.977316 -3.020363
2011-07-08 05:30:10 51°17.015 2°52.528 22.1224 0.176382 0.977316 -3.020363
2011-07-08 05:30:15 51°17.031 2°52.515 22.1329 0.176382 0.977316 -3.020363
2011-07-08 05:30:19 51°17.044 2°52.504 22.1419 0.176382 0.977316 -3.020363
2011-07-08 05:30:25 51°17.063 2°52.488 22.135 0.176382 0.977333 -3.020363
2011-07-08 05:30:30 51°17.079 2°52.474 22.1443 0.176382 0.977351 -3.020363
2011-07-08 05:30:35 51°17.095 2°52.461 22.1311 0.176382 0.977351 -3.020363
2011-07-08 05:30:39 51°17.108 2°52.449 22.1393 0.176382 0.977351 -3.020363
2011-07-08 05:30:45 51°17.127 2°52.433 22.148 0.176279 0.97677 -3.020363
2011-07-08 05:30:49 51°17.139 2°52.422 22.1354 0.176382 0.977368 -3.020363
2011-07-08 05:30:55 51°17.159 2°52.406 22.1433 0.176279 0.976787 -3.020363
2011-07-08 05:30:59 51°17.172 2°52.395 22.1431 0.176382 0.977402 -3.020363
2011-07-08 05:31:04 51°17.188 2°52.381 22.1414 0.176382 0.977402 -3.020363
2011-07-08 05:31:10 51°17.207 2°52.365 22.1333 0.176279 0.976821 -3.020363
2011-07-08 05:31:15 51°17.223 2°52.351 22.1523 0.176279 0.976821 -3.020363
2011-07-08 05:31:19 51°17.236 2°52.341 22.1178 0.176279 0.976838 -3.020363
2011-07-08 05:31:25 51°17.255 2°52.324 22.1512 0.176279 0.976855 -3.020363
2011-07-08 05:31:30 51°17.271 2°52.311 22.1213 0.176279 0.976855 -3.020363
2011-07-08 05:31:35 51°17.287 2°52.297 22.1432 0.176279 0.976872 -3.020363
2011-07-08 05:31:39 51°17.3 2°52.287 22.1371 0.176279 0.976872 -3.020363
2011-07-08 05:31:44 51°17.317 2°52.274 22.1441 0.176279 0.976889 -3.020363
2011-07-08 05:31:49 51°17.333 2°52.261 22.1356 0.176279 0.976906 -3.020363
2011-07-08 05:31:55 51°17.353 2°52.246 22.1347 0.176279 0.976923 -3.020363
2011-07-08 05:31:59 51°17.366 2°52.236 22.1409 0.176279 0.97694 -3.020363
2011-07-08 05:32:05 51°17.386 2°52.222 22.1395 0.176279 0.976957 -3.020363
2011-07-08 05:32:10 51°17.403 2°52.21 22.1331 0.176279 0.976957 -3.020363
2011-07-08 05:32:15 51°17.42 2°52.197 22.144 0.176279 0.976974 -3.020363
2011-07-08 05:32:19 51°17.433 2°52.188 22.1356 0.176279 0.977026 -3.020363
2011-07-08 05:32:25 51°17.453 2°52.173 22.1433 0.176279 0.977026 -3.020363
2011-07-08 05:32:30 51°17.47 2°52.161 22.1365 0.176279 0.977043 -3.020363
2011-07-08 05:32:35 51°17.487 2°52.149 22.1513 0.176279 0.977043 -3.020363
2011-07-08 05:32:39 51°17.5 2°52.14 22.1371 0.176279 0.977043 -3.020363
2011-07-08 05:32:45 51°17.52 2°52.125 22.1382 0.176279 0.977077 -3.020363
2011-07-08 05:32:49 51°17.534 2°52.116 22.1527 0.176279 0.977077 -3.020363
2011-07-08 05:32:55 51°17.554 2°52.101 22.1258 0.176279 0.977111 -3.020363
2011-07-08 05:32:59 51°17.567 2°52.092 22.138 0.176279 0.977111 -3.020363
2011-07-08 05:33:05 51°17.587 2°52.077 22.1436 0.176279 0.977111 -3.020363
2011-07-08 05:33:10 51°17.604 2°52.064 22.1338 0.176279 0.977111 -3.020363
2011-07-08 05:33:15 51°17.621 2°52.052 22.1432 0.176279 0.977128 -3.020363
2011-07-08 05:33:19 51°17.634 2°52.042 22.1321 0.176279 0.977145 -3.020363
2011-07-08 05:33:25 51°17.654 2°52.027 22.1449 0.176279 0.977145 -3.020363
2011-07-08 05:33:30 51°17.67 2°52.014 22.1379 0.176279 0.977162 -3.020363
2011-07-08 05:33:35 51°17.687 2°52.002 22.1494 0.176279 0.977179 -3.020363
2011-07-08 05:33:39 51°17.7 2°51.993 22.1508 0.176279 0.977179 -3.020363
2011-07-08 05:33:44 51°17.717 2°51.98 22.1458 0.176279 0.977197 -3.020363
2011-07-08 05:33:49 51°17.734 2°51.968 22.1512 0.176279 0.977197 -3.020363
2011-07-08 05:33:55 51°17.754 2°51.953 22.1382 0.176279 0.977231 -3.020363
2011-07-08 05:33:59 51°17.766 2°51.942 22.147 0.176279 0.977231 -3.020363
2011-07-08 05:34:05 51°17.786 2°51.927 22.154 0.176279 0.977248 -3.020363
2011-07-08 05:34:10 51°17.803 2°51.914 22.1532 0.176279 0.977248 -3.020363
2011-07-08 05:34:15 51°17.819 2°51.901 22.1452 0.176279 0.977265 -3.020363
2011-07-08 05:34:19 51°17.832 2°51.89 22.1527 0.176279 0.977265 -3.020363
2011-07-08 05:34:25 51°17.852 2°51.874 22.1583 0.176279 0.977282 -3.020363
2011-07-08 05:34:30 51°17.868 2°51.86 22.1494 0.176279 0.977282 -3.020363
2011-07-08 05:34:35 51°17.884 2°51.846 22.1408 0.176279 0.977299 -3.020363
2011-07-08 05:34:39 51°17.896 2°51.835 22.1577 0.176279 0.977299 -3.020363
2011-07-08 05:34:45 51°17.916 2°51.818 22.1386 0.176279 0.977316 -3.020363
2011-07-08 05:34:49 51°17.928 2°51.806 22.138 0.176279 0.977333 -3.020363
2011-07-08 05:34:55 51°17.947 2°51.789 22.1591 0.176279 0.977333 -3.020363
2011-07-08 05:34:59 51°17.96 2°51.779 22.1344 0.176279 0.97735 -3.020363
2011-07-08 05:35:05 51°17.979 2°51.762 22.1547 0.176279 0.977367 -3.020363
2011-07-08 05:35:10 51°17.995 2°51.747 22.1352 0.176279 0.977367 -3.020363
2011-07-08 05:35:15 51°18.011 2°51.734 22.1522 0.176279 0.977367 -3.020363
2011-07-08 05:35:19 51°18.024 2°51.723 22.1487 0.176279 0.977402 -3.020363
2011-07-08 05:35:24 51°18.04 2°51.709 22.1533 0.176279 0.977419 -3.020363
2011-07-08 05:35:29 51°18.057 2°51.696 22.1602 0.176279 0.977419 -3.020363
2011-07-08 05:35:35 51°18.076 2°51.68 22.1537 0.176279 0.977436 -3.020363
2011-07-08 05:35:39 51°18.09 2°51.669 22.1537 0.176279 0.977436 -3.020363
2011-07-08 05:35:44 51°18.106 2°51.656 22.1593 0.176279 0.977453 -3.020363
2011-07-08 05:35:50 51°18.126 2°51.641 22.1568 0.176279 0.97747 -3.020363
2011-07-08 05:35:55 51°18.142 2°51.628 22.1624 0.176279 0.97747 -3.020363
2011-07-08 05:35:59 51°18.155 2°51.618 22.1584 0.176279 0.977487 -3.020363
2011-07-08 05:36:05 51°18.175 2°51.602 22.1469 0.176279 0.977504 -3.020363
2011-07-08 05:36:10 51°18.192 2°51.589 22.163 0.176279 0.977504 -3.020363
2011-07-08 05:36:15 51°18.208 2°51.576 22.1653 0.176279 0.977504 -3.020363
2011-07-08 05:36:19 51°18.221 2°51.566 22.1482 0.176279 0.977521 -3.020363
2011-07-08 05:36:25 51°18.241 2°51.55 22.1589 0.176279 0.977538 -3.020363
2011-07-08 05:36:30 51°18.257 2°51.537 22.1472 0.176279 0.977555 -3.020363
2011-07-08 05:36:35 51°18.274 2°51.524 22.1501 0.176279 0.977555 -3.020363
2011-07-08 05:36:39 51°18.288 2°51.515 22.1549 0.176279 0.977555 -3.020363
2011-07-08 05:36:45 51°18.307 2°51.5 22.1635 0.176279 0.97759 -3.020363
2011-07-08 05:36:50 51°18.324 2°51.488 22.1662 0.176279 0.977607 -3.020363
2011-07-08 05:36:55 51°18.341 2°51.476 22.1461 0.176279 0.977624 -3.020363
2011-07-08 05:37:00 51°18.357 2°51.464 22.1584 0.176279 0.977641 -3.020363
2011-07-08 05:37:05 51°18.375 2°51.452 22.1655 0.176279 0.977658 -3.020363
2011-07-08 05:37:10 51°18.391 2°51.44 22.1725 0.176279 0.977658 -3.020363
2011-07-08 05:37:15 51°18.408 2°51.427 22.1643 0.176279 0.977692 -3.020363
2011-07-08 05:37:20 51°18.424 2°51.415 22.1655 0.176279 0.977709 -3.020363
2011-07-08 05:37:25 51°18.441 2°51.402 22.173 0.176279 0.977709 -3.020363
2011-07-08 05:37:30 51°18.457 2°51.389 22.1699 0.176279 0.977726 -3.020363
2011-07-08 05:37:35 51°18.474 2°51.376 22.1721 0.176279 0.977744 -3.020363
2011-07-08 05:37:39 51°18.487 2°51.366 22.1527 0.176279 0.977744 -3.020363
2011-07-08 05:37:45 51°18.507 2°51.35 22.162 0.176279 0.977744 -3.020363
2011-07-08 05:37:50 51°18.523 2°51.337 22.1721 0.176279 0.977761 -3.020363
2011-07-08 05:37:55 51°18.539 2°51.323 22.1514 0.176176 0.977162 -3.020363
2011-07-08 05:37:59 51°18.552 2°51.313 22.1522 0.176279 0.977778 -3.020363
2011-07-08 05:38:04 51°18.569 2°51.299 22.175 0.176279 0.977795 -3.020363
2011-07-08 05:38:10 51°18.588 2°51.284 22.1723 0.176279 0.977795 -3.020363
2011-07-08 05:38:15 51°18.604 2°51.27 22.1596 0.176279 0.977812 -3.020363
2011-07-08 05:38:19 51°18.617 2°51.26 22.1683 0.176279 0.977812 -3.020363
2011-07-08 05:38:24 51°18.634 2°51.247 22.1694 0.176176 0.97723 -3.020363
2011-07-08 05:38:30 51°18.653 2°51.23 22.1776 0.176176 0.97723 -3.020363
2011-07-08 05:38:35 51°18.669 2°51.217 22.1568 0.176176 0.977248 -3.020363
2011-07-08 05:38:39 51°18.682 2°51.206 22.1735 0.176176 0.977248 -3.020363
2011-07-08 05:38:45 51°18.702 2°51.19 22.1761 0.176279 0.977863 -3.020363
2011-07-08 05:38:49 51°18.714 2°51.179 22.1764 0.176176 0.977265 -3.020363
2011-07-08 05:38:55 51°18.734 2°51.163 22.165 0.176279 0.977863 -3.020363
2011-07-08 05:38:59 51°18.747 2°51.153 22.1803 0.176176 0.977282 -3.020363
2011-07-08 05:39:05 51°18.767 2°51.138 22.1724 0.176176 0.977299 -3.020363
2011-07-08 05:39:10 51°18.783 2°51.124 22.1737 0.176176 0.977299 -3.020363
2011-07-08 05:39:15 51°18.799 2°51.111 22.1648 0.176279 0.977915 -3.020363
2011-07-08 05:39:19 51°18.812 2°51.101 22.1751 0.176176 0.977333 -3.020363
2011-07-08 05:39:25 51°18.832 2°51.086 22.1717 0.176176 0.97735 -3.020363
2011-07-08 05:39:30 51°18.848 2°51.072 22.18 0.176176 0.97735 -3.020363
2011-07-08 05:39:35 51°18.865 2°51.06 22.1839 0.176176 0.977384 -3.020363
2011-07-08 05:39:40 51°18.881 2°51.046 22.1763 0.176176 0.977384 -3.020363
2011-07-08 05:39:45 51°18.897 2°51.033 22.1726 0.176176 0.977384 -3.020363
2011-07-08 05:39:49 51°18.91 2°51.022 22.1837 0.176176 0.977401 -3.020363
2011-07-08 05:39:55 51°18.93 2°51.008 22.186 0.176176 0.977419 -3.020363
2011-07-08 05:39:59 51°18.943 2°50.997 22.1806 0.176176 0.977419 -3.020363
2011-07-08 05:40:05 51°18.963 2°50.983 22.1875 0.176176 0.977453 -3.020363
2011-07-08 05:40:10 51°18.979 2°50.97 22.1686 0.176176 0.977453 -3.020363
2011-07-08 05:40:15 51°18.996 2°50.958 22.1773 0.176176 0.977453 -3.020363
2011-07-08 05:40:19 51°19.009 2°50.948 22.1879 0.176176 0.977453 -3.020363
2011-07-08 05:40:25 51°19.029 2°50.934 22.1724 0.176176 0.97747 -3.020363
2011-07-08 05:40:30 51°19.046 2°50.922 22.1869 0.176176 0.977487 -3.020363
2011-07-08 05:40:35 51°19.063 2°50.911 22.1754 0.176176 0.977504 -3.020363
2011-07-08 05:40:39 51°19.077 2°50.902 22.1845 0.176176 0.977504 -3.020363
2011-07-08 05:40:45 51°19.098 2°50.889 22.1826 0.176176 0.977504 -3.020363
2011-07-08 05:40:49 51°19.111 2°50.88 22.1872 0.176176 0.977521 -3.020363
2011-07-08 05:40:55 51°19.132 2°50.867 22.1746 0.176176 0.977555 -3.020363
2011-07-08 05:40:59 51°19.145 2°50.857 22.1916 0.176176 0.977538 -3.020363
2011-07-08 05:41:05 51°19.165 2°50.844 22.1768 0.176176 0.977555 -3.020363
2011-07-08 05:41:10 51°19.182 2°50.833 22.1893 0.176176 0.977555 -3.020363
2011-07-08 05:41:15 51°19.199 2°50.822 22.1836 0.176176 0.977555 -3.020363
2011-07-08 05:41:19 51°19.212 2°50.813 22.179 0.176176 0.977573 -3.020363
2011-07-08 05:41:25 51°19.233 2°50.801 22.1872 0.176176 0.977573 -3.020363
2011-07-08 05:41:29 51°19.246 2°50.792 22.1887 0.176176 0.97759 -3.020363
2011-07-08 05:41:35 51°19.267 2°50.78 22.1952 0.176176 0.977607 -3.020363
2011-07-08 05:41:39 51°19.281 2°50.772 22.1745 0.176176 0.977607 -3.020363
2011-07-08 05:41:45 51°19.301 2°50.759 22.1939 0.176176 0.977607 -3.020363
2011-07-08 05:41:49 51°19.315 2°50.751 22.18 0.176176 0.977624 -3.020363
2011-07-08 05:41:55 51°19.335 2°50.738 22.1935 0.176176 0.977641 -3.020363
2011-07-08 05:41:59 51°19.348 2°50.73 22.1957 0.176176 0.977658 -3.020363
2011-07-08 05:42:05 51°19.368 2°50.716 22.186 0.176176 0.977675 -3.020363
2011-07-08 05:42:10 51°19.385 2°50.705 22.1966 0.176176 0.977675 -3.020363
2011-07-08 05:42:15 51°19.402 2°50.694 22.1984 0.176176 0.977692 -3.020363
2011-07-08 05:42:19 51°19.416 2°50.685 22.1858 0.176176 0.977692 -3.020363
2011-07-08 05:42:25 51°19.436 2°50.671 22.1992 0.176176 0.97771 -3.020363
2011-07-08 05:42:30 51°19.452 2°50.659 22.193 0.176176 0.97771 -3.020363
2011-07-08 05:42:35 51°19.469 2°50.648 22.1965 0.176176 0.977727 -3.020363
2011-07-08 05:42:39 51°19.482 2°50.638 22.181 0.176176 0.977727 -3.020363
2011-07-08 05:42:44 51°19.498 2°50.626 22.2018 0.176176 0.977727 -3.020363
2011-07-08 05:42:50 51°19.518 2°50.613 22.197 0.176176 0.977744 -3.020363
2011-07-08 05:42:55 51°19.534 2°50.601 22.1981 0.176176 0.977744 -3.020363
2011-07-08 05:42:59 51°19.548 2°50.592 22.196 0.176176 0.977778 -3.020363
2011-07-08 05:43:05 51°19.567 2°50.578 22.2016 0.176176 0.977778 -3.020363
2011-07-08 05:43:10 51°19.584 2°50.567 22.1914 0.176176 0.977778 -3.020363
2011-07-08 05:43:15 51°19.601 2°50.555 22.2047 0.176176 0.977795 -3.020363
2011-07-08 05:43:19 51°19.614 2°50.546 22.2073 0.176176 0.977812 -3.020363
2011-07-08 05:43:25 51°19.634 2°50.532 22.1994 0.176176 0.977812 -3.020363
2011-07-08 05:43:29 51°19.647 2°50.523 22.2065 0.176176 0.977829 -3.020363
2011-07-08 05:43:35 51°19.668 2°50.509 22.2014 0.176176 0.977829 -3.020363
2011-07-08 05:43:39 51°19.681 2°50.5 22.1959 0.176176 0.977829 -3.020363
2011-07-08 05:43:45 51°19.701 2°50.487 22.2078 0.176176 0.977846 -3.020363
2011-07-08 05:43:49 51°19.715 2°50.479 22.2107 0.176176 0.977864 -3.020363
2011-07-08 05:43:55 51°19.736 2°50.466 22.2061 0.176176 0.977864 -3.020363
2011-07-08 05:43:59 51°19.749 2°50.457 22.1981 0.176176 0.977898 -3.020363
2011-07-08 05:44:05 51°19.77 2°50.445 22.2053 0.176176 0.977898 -3.020363
2011-07-08 05:44:10 51°19.787 2°50.434 22.2069 0.176176 0.977898 -3.020363
2011-07-08 05:44:15 51°19.804 2°50.424 22.1955 0.176176 0.977915 -3.020363
2011-07-08 05:44:19 51°19.817 2°50.415 22.2128 0.176176 0.977915 -3.020363
2011-07-08 05:44:25 51°19.838 2°50.404 22.2075 0.176176 0.977949 -3.020363
2011-07-08 05:44:30 51°19.855 2°50.393 22.2115 0.176176 0.977932 -3.020363
2011-07-08 05:44:35 51°19.872 2°50.383 22.2093 0.176176 0.977949 -3.020363
2011-07-08 05:44:39 51°19.886 2°50.374 22.2192 0.176176 0.977949 -3.020363
2011-07-08 05:44:44 51°19.903 2°50.364 22.2079 0.176176 0.977966 -3.020363
2011-07-08 05:44:50 51°19.924 2°50.351 22.2043 0.176176 0.977966 -3.020363
2011-07-08 05:44:55 51°19.941 2°50.341 22.209 0.176176 0.977983 -3.020363
2011-07-08 05:44:59 51°19.955 2°50.333 22.2047 0.176176 0.978001 -3.020363
2011-07-08 05:45:05 51°19.975 2°50.319 22.2037 0.176176 0.978001 -3.020363
2011-07-08 05:45:10 51°19.992 2°50.308 22.2145 0.176176 0.978001 -3.020363
2011-07-08 05:45:15 51°20.009 2°50.297 22.2176 0.176176 0.978018 -3.020363
2011-07-08 05:45:19 51°20.022 2°50.288 22.2178 0.176176 0.978018 -3.020363
2011-07-08 05:45:25 51°20.043 2°50.275 22.2168 0.176176 0.978035 -3.020363
2011-07-08 05:45:29 51°20.056 2°50.265 22.2165 0.176176 0.978035 -3.020363
2011-07-08 05:45:35 51°20.076 2°50.252 22.213 0.176176 0.978052 -3.020363
2011-07-08 05:45:39 51°20.089 2°50.243 22.2199 0.176176 0.978052 -3.020363
2011-07-08 05:45:45 51°20.109 2°50.228 22.2115 0.176074 0.977453 -3.020363
2011-07-08 05:45:49 51°20.122 2°50.219 22.2173 0.176176 0.978069 -3.020363
2011-07-08 05:45:55 51°20.142 2°50.205 22.2255 0.176176 0.978086 -3.020363
2011-07-08 05:45:59 51°20.155 2°50.195 22.2209 0.176074 0.97747 -3.020363
2011-07-08 05:46:05 51°20.175 2°50.181 22.2227 0.176176 0.978086 -3.020363
2011-07-08 05:46:10 51°20.192 2°50.169 22.2236 0.176176 0.978086 -3.020363
2011-07-08 05:46:15 51°20.208 2°50.157 22.2227 0.176074 0.977487 -3.020363
2011-07-08 05:46:19 51°20.222 2°50.148 22.2179 0.176176 0.978086 -3.020363
2011-07-08 05:46:25 51°20.242 2°50.135 22.2241 0.176176 0.978103 -3.020363
2011-07-08 05:46:30 51°20.259 2°50.124 22.2358 0.176074 0.977504 -3.020363
2011-07-08 05:46:35 51°20.276 2°50.112 22.212 0.176074 0.977521 -3.020363
2011-07-08 05:46:39 51°20.289 2°50.104 22.228 0.176074 0.977521 -3.020363
2011-07-08 05:46:44 51°20.306 2°50.092 22.2215 0.176176 0.978138 -3.020363
2011-07-08 05:46:49 51°20.323 2°50.082 22.2299 0.176074 0.977539 -3.020363
2011-07-08 05:46:55 51°20.344 2°50.069 22.2245 0.176074 0.977539 -3.020363
2011-07-08 05:46:59 51°20.358 2°50.061 22.2351 0.176074 0.977556 -3.020363
2011-07-08 05:47:05 51°20.378 2°50.047 22.2238 0.176074 0.977573 -3.020363
2011-07-08 05:47:10 51°20.396 2°50.036 22.2317 0.176074 0.977573 -3.020363
2011-07-08 05:47:15 51°20.413 2°50.026 22.2319 0.176074 0.977573 -3.020363
2011-07-08 05:47:19 51°20.426 2°50.016 22.2238 0.176074 0.97759 -3.020363
2011-07-08 05:47:24 51°20.443 2°50.005 22.228 0.176074 0.97759 -3.020363
2011-07-08 05:47:29 51°20.461 2°49.995 22.2129 0.176074 0.97759 -3.020363
2011-07-08 05:47:35 51°20.482 2°49.984 22.2325 0.176074 0.977624 -3.020363
2011-07-08 05:47:39 51°20.496 2°49.977 22.2245 0.176074 0.977624 -3.020363
2011-07-08 05:47:44 51°20.515 2°49.97 22.2296 0.176074 0.977641 -3.020363
2011-07-08 05:47:50 51°20.537 2°49.962 22.226 0.176074 0.977676 -3.020363
2011-07-08 05:47:55 51°20.556 2°49.957 22.2327 0.176074 0.97771 -3.020363
2011-07-08 05:47:59 51°20.571 2°49.953 22.2343 0.176074 0.977727 -3.020363
2011-07-08 05:48:04 51°20.59 2°49.95 22.2307 0.176074 0.977744 -3.020363
2011-07-08 05:48:10 51°20.612 2°49.945 22.2295 0.176074 0.977744 -3.020363
2011-07-08 05:48:15 51°20.632 2°49.944 22.2226 0.176074 0.977744 -3.020363
2011-07-08 05:48:19 51°20.647 2°49.944 22.2411 0.176074 0.977778 -3.020363
2011-07-08 05:48:25 51°20.671 2°49.944 22.2329 0.176074 0.977795 -3.020363
2011-07-08 05:48:30 51°20.69 2°49.944 22.2303 0.176074 0.977795 -3.020363
2011-07-08 05:48:35 51°20.709 2°49.945 22.2294 0.176074 0.977795 -3.020363
2011-07-08 05:48:39 51°20.725 2°49.947 22.2336 0.176074 0.977795 -3.020363
2011-07-08 05:48:45 51°20.749 2°49.951 22.2256 0.176074 0.977813 -3.020363
2011-07-08 05:48:50 51°20.768 2°49.955 22.2349 0.176074 0.977795 -3.020363
2011-07-08 05:48:55 51°20.788 2°49.962 22.2385 0.176074 0.977813 -3.020363
2011-07-08 05:48:59 51°20.803 2°49.966 22.23 0.176074 0.977813 -3.020363
2011-07-08 05:49:05 51°20.826 2°49.974 22.2374 0.176074 0.97783 -3.020363
2011-07-08 05:49:10 51°20.846 2°49.98 22.239 0.176074 0.97783 -3.020363
2011-07-08 05:49:15 51°20.865 2°49.989 22.2385 0.176074 0.977847 -3.020363
2011-07-08 05:49:19 51°20.88 2°49.994 22.2038 0.176074 0.977864 -3.020363
2011-07-08 05:49:24 51°20.899 2°50.002 22.2658 0.176074 0.977881 -3.020363
2011-07-08 05:49:30 51°20.922 2°50.012 22.239 0.176074 0.977898 -3.020363
2011-07-08 05:49:35 51°20.94 2°50.018 22.2372 0.176074 0.977898 -3.020363
2011-07-08 05:49:39 51°20.955 2°50.024 22.2435 0.176074 0.977898 -3.020363
2011-07-08 05:49:45 51°20.978 2°50.034 22.2428 0.176074 0.977933 -3.020363
2011-07-08 05:49:49 51°20.993 2°50.04 22.2496 0.176074 0.977984 -3.020363
2011-07-08 05:49:55 51°21.015 2°50.051 22.2451 0.176074 0.978018 -3.020363
2011-07-08 05:49:59 51°21.03 2°50.056 22.2508 0.176074 0.978053 -3.020363
2011-07-08 05:50:04 51°21.049 2°50.065 22.2515 0.176074 0.97807 -3.020363
2011-07-08 05:50:10 51°21.072 2°50.073 22.2513 0.176074 0.97807 -3.020363
2011-07-08 05:50:14 51°21.087 2°50.079 22.2489 0.176074 0.978087 -3.020363
2011-07-08 05:50:19 51°21.105 2°50.087 22.2544 0.176074 0.978087 -3.020363
2011-07-08 05:50:24 51°21.125 2°50.094 22.2519 0.176074 0.97807 -3.020363
2011-07-08 05:50:30 51°21.147 2°50.103 22.2577 0.176074 0.97807 -3.020363
2011-07-08 05:50:35 51°21.167 2°50.112 22.2568 0.176074 0.978035 -3.020363
2011-07-08 05:50:39 51°21.182 2°50.117 22.2608 0.176074 0.978035 -3.020363
2011-07-08 05:50:45 51°21.205 2°50.127 22.2573 0.176074 0.978035 -3.020363
2011-07-08 05:50:49 51°21.221 2°50.131 22.2639 0.176074 0.978018 -3.020363
2011-07-08 05:50:55 51°21.243 2°50.14 22.2589 0.176074 0.978053 -3.020363
2011-07-08 05:50:59 51°21.259 2°50.144 22.2648 0.176074 0.978053 -3.020363
2011-07-08 05:51:05 51°21.282 2°50.154 22.2635 0.176074 0.978104 -3.020363
2011-07-08 05:51:10 51°21.301 2°50.16 22.2662 0.176074 0.978104 -3.020363
2011-07-08 05:51:15 51°21.32 2°50.166 22.266 0.176074 0.978138 -3.020363
2011-07-08 05:51:19 51°21.336 2°50.172 22.2677 0.176074 0.978173 -3.020363
2011-07-08 05:51:25 51°21.359 2°50.18 22.2663 0.176074 0.978207 -3.020363
2011-07-08 05:51:30 51°21.378 2°50.185 22.2708 0.176074 0.978207 -3.020363
2011-07-08 05:51:35 51°21.397 2°50.193 22.2686 0.176074 0.978207 -3.020363
2011-07-08 05:51:39 51°21.413 2°50.198 22.2728 0.176074 0.978207 -3.020363
2011-07-08 05:51:44 51°21.431 2°50.205 22.2727 0.176074 0.978207 -3.020363
2011-07-08 05:51:50 51°21.454 2°50.214 22.278 0.176074 0.978173 -3.020363
2011-07-08 05:51:55 51°21.473 2°50.221 22.274 0.176074 0.978173 -3.020363
2011-07-08 05:51:59 51°21.488 2°50.226 22.2813 0.176074 0.978155 -3.020363
2011-07-08 05:52:05 51°21.511 2°50.234 22.2761 0.176074 0.978138 -3.020363
2011-07-08 05:52:09 51°21.527 2°50.239 22.2787 0.176074 0.978138 -3.020363
2011-07-08 05:52:15 51°21.549 2°50.245 22.2793 0.175971 0.977522 -3.020363
2011-07-08 05:52:19 51°21.564 2°50.25 22.2832 0.175971 0.977504 -3.020363
2011-07-08 05:52:24 51°21.583 2°50.256 22.2846 0.175971 0.977539 -3.020363
2011-07-08 05:52:30 51°21.606 2°50.263 22.2874 0.175971 0.977522 -3.020363
2011-07-08 05:52:35 51°21.625 2°50.269 22.2898 0.175971 0.977522 -3.020363
2011-07-08 05:52:39 51°21.641 2°50.273 22.2911 0.175971 0.977556 -3.020363
2011-07-08 05:52:44 51°21.66 2°50.277 22.291 0.175971 0.977573 -3.020363
2011-07-08 05:52:50 51°21.683 2°50.281 22.2899 0.175971 0.977556 -3.020363
2011-07-08 05:52:55 51°21.702 2°50.284 22.2954 0.175971 0.97759 -3.020363
2011-07-08 05:52:59 51°21.717 2°50.287 22.2922 0.175971 0.97759 -3.020363
2011-07-08 05:53:05 51°21.739 2°50.289 22.3005 0.175971 0.97759 -3.020363
2011-07-08 05:53:09 51°21.755 2°50.291 22.2973 0.175971 0.97759 -3.020363
2011-07-08 05:53:15 51°21.777 2°50.291 22.3054 0.175971 0.97759 -3.020363
2011-07-08 05:53:19 51°21.792 2°50.292 22.2978 0.175971 0.977624 -3.020363
2011-07-08 05:53:25 51°21.815 2°50.29 22.3006 0.175971 0.97759 -3.020363
2011-07-08 05:53:30 51°21.834 2°50.29 22.3055 0.175971 0.97759 -3.020363
2011-07-08 05:53:35 51°21.852 2°50.287 22.3089 0.175971 0.97759 -3.020363
2011-07-08 05:53:39 51°21.868 2°50.286 22.3073 0.175971 0.97759 -3.020363
2011-07-08 05:53:45 51°21.89 2°50.282 22.3069 0.175971 0.97759 -3.020363
2011-07-08 05:53:50 51°21.908 2°50.28 22.3116 0.175971 0.977573 -3.020363
2011-07-08 05:53:55 51°21.927 2°50.274 22.3143 0.175971 0.977539 -3.020363
2011-07-08 05:53:59 51°21.941 2°50.271 22.3124 0.175971 0.977539 -3.020363
2011-07-08 05:54:04 51°21.96 2°50.266 22.3117 0.175971 0.977539 -3.020363
2011-07-08 05:54:10 51°21.982 2°50.259 22.3161 0.175971 0.97747 -3.020363
2011-07-08 05:54:15 51°22 2°50.254 22.3189 0.175971 0.97747 -3.020363
2011-07-08 05:54:19 51°22.015 2°50.25 22.3183 0.175971 0.977436 -3.020363
2011-07-08 05:54:25 51°22.037 2°50.244 22.3223 0.175971 0.977436 -3.020363
2011-07-08 05:54:30 51°22.055 2°50.238 22.3227 0.175971 0.977436 -3.020363
2011-07-08 05:54:35 51°22.074 2°50.233 22.3249 0.175971 0.97747 -3.020363
2011-07-08 05:54:39 51°22.089 2°50.229 22.3239 0.175971 0.97747 -3.020363
2011-07-08 05:54:44 51°22.107 2°50.223 22.326 0.175971 0.977504 -3.020363
2011-07-08 05:54:50 51°22.129 2°50.217 22.323 0.175971 0.977573 -3.020363
2011-07-08 05:54:55 51°22.147 2°50.211 22.329 0.175971 0.977607 -3.020363
2011-07-08 05:54:59 51°22.162 2°50.208 22.3241 0.175971 0.977642 -3.020363
2011-07-08 05:55:05 51°22.184 2°50.201 22.3294 0.175971 0.977676 -3.020363
2011-07-08 05:55:10 51°22.202 2°50.196 22.3277 0.175971 0.977676 -3.020363
2011-07-08 05:55:15 51°22.221 2°50.192 22.3338 0.175971 0.977693 -3.020363
2011-07-08 05:55:19 51°22.236 2°50.188 22.3301 0.175971 0.977744 -3.020363
2011-07-08 05:55:25 51°22.258 2°50.182 22.3391 0.175971 0.97771 -3.020363
2011-07-08 05:55:30 51°22.276 2°50.179 22.3317 0.175971 0.977744 -3.020363
2011-07-08 05:55:35 51°22.295 2°50.173 22.3394 0.175971 0.977693 -3.020363
2011-07-08 05:55:39 51°22.309 2°50.171 22.341 0.175971 0.977693 -3.020363
2011-07-08 05:55:45 51°22.332 2°50.165 22.3441 0.175971 0.977693 -3.020363
2011-07-08 05:55:50 51°22.35 2°50.16 22.3433 0.175971 0.977659 -3.020363
2011-07-08 05:55:55 51°22.368 2°50.155 22.3421 0.175971 0.977642 -3.020363
2011-07-08 05:55:59 51°22.383 2°50.15 22.3445 0.175971 0.97759 -3.020363
2011-07-08 05:56:04 51°22.401 2°50.145 22.343 0.175971 0.977573 -3.020363
2011-07-08 05:56:10 51°22.423 2°50.138 22.3473 0.175971 0.977573 -3.020363
2011-07-08 05:56:15 51°22.442 2°50.135 22.3479 0.175971 0.977573 -3.020363
2011-07-08 05:56:19 51°22.457 2°50.13 22.3476 0.175971 0.977573 -3.020363
2011-07-08 05:56:24 51°22.475 2°50.126 22.354 0.175971 0.977573 -3.020363
2011-07-08 05:56:30 51°22.497 2°50.12 22.3552 0.175971 0.977607 -3.020363
2011-07-08 05:56:35 51°22.516 2°50.116 22.3512 0.175971 0.977607 -3.020363
2011-07-08 05:56:39 51°22.53 2°50.11 22.3587 0.175971 0.977607 -3.020363
2011-07-08 05:56:45 51°22.552 2°50.106 22.3593 0.175971 0.977573 -3.020363
2011-07-08 05:56:50 51°22.571 2°50.101 22.3597 0.175971 0.977556 -3.020363
2011-07-08 05:56:55 51°22.589 2°50.098 22.3654 0.175971 0.977556 -3.020363
2011-07-08 05:56:59 51°22.604 2°50.095 22.3607 0.175971 0.977573 -3.020363
2011-07-08 05:57:04 51°22.623 2°50.089 22.3657 0.175971 0.977607 -3.020363
2011-07-08 05:57:10 51°22.645 2°50.084 22.3596 0.175971 0.977607 -3.020363
2011-07-08 05:57:15 51°22.663 2°50.078 22.3698 0.175971 0.977522 -3.020363
2011-07-08 05:57:19 51°22.678 2°50.075 22.3644 0.175971 0.977522 -3.020363
2011-07-08 05:57:25 51°22.699 2°50.069 22.3706 0.175971 0.977522 -3.020363
2011-07-08 05:57:30 51°22.718 2°50.065 22.3692 0.175971 0.977522 -3.020363
2011-07-08 05:57:35 51°22.737 2°50.06 22.3743 0.175971 0.977522 -3.020363
2011-07-08 05:57:39 51°22.752 2°50.056 22.3765 0.175971 0.977522 -3.020363
2011-07-08 05:57:45 51°22.774 2°50.05 22.3755 0.175971 0.977573 -3.020363
2011-07-08 05:57:50 51°22.792 2°50.045 22.3756 0.175971 0.977573 -3.020363
2011-07-08 05:57:55 51°22.811 2°50.04 22.3764 0.175971 0.97759 -3.020363
2011-07-08 05:57:59 51°22.826 2°50.036 22.3819 0.175971 0.977624 -3.020363
2011-07-08 05:58:05 51°22.848 2°50.03 22.3834 0.175971 0.977659 -3.020363
2011-07-08 05:58:10 51°22.867 2°50.026 22.3818 0.175971 0.977659 -3.020363
2011-07-08 05:58:15 51°22.886 2°50.021 22.3857 0.175971 0.977676 -3.020363
2011-07-08 05:58:19 51°22.9 2°50.017 22.3849 0.175971 0.977727 -3.020363
2011-07-08 05:58:24 51°22.919 2°50.011 22.3835 0.175971 0.977727 -3.020363
2011-07-08 05:58:30 51°22.941 2°50.005 22.3903 0.175971 0.977744 -3.020363
2011-07-08 05:58:35 51°22.959 2°49.999 22.392 0.175971 0.977762 -3.020363
2011-07-08 05:58:39 51°22.974 2°49.996 22.392 0.175971 0.977762 -3.020363
2011-07-08 05:58:45 51°22.996 2°49.989 22.394 0.175971 0.977796 -3.020363
2011-07-08 05:58:49 51°23.011 2°49.985 22.3942 0.175971 0.977796 -3.020363
2011-07-08 05:58:55 51°23.034 2°49.98 22.3932 0.175971 0.977796 -3.020363
2011-07-08 05:58:59 51°23.049 2°49.976 22.4007 0.175971 0.977796 -3.020363
2011-07-08 05:59:04 51°23.067 2°49.972 22.399 0.175971 0.97783 -3.020363
2011-07-08 05:59:10 51°23.09 2°49.967 22.4002 0.175971 0.97783 -3.020363
2011-07-08 05:59:15 51°23.108 2°49.962 22.4063 0.175971 0.977813 -3.020363
2011-07-08 05:59:19 51°23.123 2°49.959 22.402 0.175971 0.977865 -3.020363
2011-07-08 05:59:24 51°23.142 2°49.953 22.4054 0.175971 0.97783 -3.020363
2011-07-08 05:59:30 51°23.164 2°49.947 22.4099 0.175971 0.977847 -3.020363
2011-07-08 05:59:35 51°23.183 2°49.94 22.4096 0.175971 0.977796 -3.020363
2011-07-08 05:59:39 51°23.198 2°49.937 22.4093 0.175971 0.977796 -3.020363
2011-07-08 05:59:45 51°23.219 2°49.93 22.413 0.175971 0.977762 -3.020363
2011-07-08 05:59:49 51°23.234 2°49.927 22.4127 0.175971 0.977727 -3.020363
2011-07-08 05:59:55 51°23.257 2°49.921 22.419 0.175971 0.97771 -3.020363
2011-07-08 05:59:59 51°23.272 2°49.918 22.4191 0.175971 0.977744 -3.020363
2011-07-08 06:00:05 51°23.294 2°49.912 22.4253 0.175971 0.977762 -3.020363
2011-07-08 06:00:10 51°23.313 2°49.907 22.4224 0.175971 0.977762 -3.020363
2011-07-08 06:00:15 51°23.332 2°49.902 22.424 0.175971 0.977779 -3.020363
2011-07-08 06:00:19 51°23.346 2°49.896 22.4281 0.175971 0.977796 -3.020363
2011-07-08 06:00:25 51°23.368 2°49.89 22.4167 0.175971 0.977865 -3.020363
2011-07-08 06:00:30 51°23.387 2°49.884 22.4109 0.175971 0.977916 -3.020363
2011-07-08 06:00:35 51°23.405 2°49.878 22.4153 0.175971 0.977985 -3.020363
2011-07-08 06:00:39 51°23.419 2°49.872 22.4145 0.175971 0.977985 -3.020363
2011-07-08 06:00:44 51°23.438 2°49.866 22.4224 0.175971 0.978053 -3.020363
2011-07-08 06:00:50 51°23.459 2°49.858 22.4289 0.175971 0.978105 -3.020363
2011-07-08 06:00:55 51°23.478 2°49.853 22.4295 0.175971 0.978173 -3.020363
2011-07-08 06:00:59 51°23.492 2°49.847 22.4341 0.175971 0.978208 -3.020363
2011-07-08 06:01:05 51°23.515 2°49.842 22.4373 0.175971 0.978242 -3.020363
2011-07-08 06:01:09 51°23.529 2°49.838 22.4397 0.175971 0.978242 -3.020363
2011-07-08 06:01:15 51°23.552 2°49.832 22.4348 0.175971 0.978294 -3.020363
2011-07-08 06:01:19 51°23.566 2°49.827 22.4458 0.175971 0.978294 -3.020363
2011-07-08 06:01:24 51°23.585 2°49.823 22.4439 0.175971 0.978311 -3.020363
2011-07-08 06:01:30 51°23.607 2°49.816 22.4486 0.175971 0.978294 -3.020363
2011-07-08 06:01:35 51°23.626 2°49.812 22.4459 0.175971 0.978276 -3.020363
2011-07-08 06:01:39 51°23.64 2°49.806 22.4509 0.175971 0.978276 -3.020363
2011-07-08 06:01:45 51°23.662 2°49.801 22.4461 0.175971 0.978259 -3.020363
2011-07-08 06:01:50 51°23.681 2°49.794 22.455 0.175971 0.978259 -3.020363
2011-07-08 06:01:55 51°23.699 2°49.791 22.4483 0.175971 0.978276 -3.020363
2011-07-08 06:01:59 51°23.714 2°49.785 22.4544 0.175971 0.978225 -3.020363
2011-07-08 06:02:05 51°23.736 2°49.779 22.4605 0.175971 0.978259 -3.020363
2011-07-08 06:02:10 51°23.754 2°49.774 22.453 0.175971 0.978259 -3.020363
2011-07-08 06:02:15 51°23.773 2°49.767 22.4554 0.175971 0.978242 -3.020363
2011-07-08 06:02:19 51°23.788 2°49.763 22.463 0.175971 0.978242 -3.020363
2011-07-08 06:02:25 51°23.81 2°49.757 22.462 0.175971 0.978242 -3.020363
2011-07-08 06:02:30 51°23.829 2°49.752 22.4723 0.175971 0.978294 -3.020363
2011-07-08 06:02:35 51°23.848 2°49.747 22.468 0.175971 0.978311 -3.020363
2011-07-08 06:02:39 51°23.863 2°49.742 22.472 0.175971 0.978311 -3.020363
2011-07-08 06:02:45 51°23.885 2°49.737 22.4673 0.175971 0.978345 -3.020363
2011-07-08 06:02:50 51°23.903 2°49.731 22.4735 0.175971 0.978328 -3.020363
2011-07-08 06:02:55 51°23.922 2°49.728 22.4759 0.175971 0.978362 -3.020363
2011-07-08 06:02:59 51°23.936 2°49.723 22.4783 0.175971 0.978379 -3.020363
2011-07-08 06:03:04 51°23.955 2°49.719 22.475 0.175971 0.978379 -3.020363
2011-07-08 06:03:10 51°23.977 2°49.712 22.4771 0.175971 0.978379 -3.020363
2011-07-08 06:03:15 51°23.996 2°49.707 22.4809 0.175868 0.977831 -3.020363
2011-07-08 06:03:19 51°24.011 2°49.703 22.4858 0.175971 0.978431 -3.020363
2011-07-08 06:03:25 51°24.033 2°49.697 22.4871 0.175971 0.978448 -3.020363
2011-07-08 06:03:30 51°24.051 2°49.692 22.4868 0.175971 0.978482 -3.020363
2011-07-08 06:03:35 51°24.07 2°49.687 22.4893 0.175971 0.978465 -3.020363
2011-07-08 06:03:39 51°24.085 2°49.683 22.4892 0.175971 0.978465 -3.020363
2011-07-08 06:03:44 51°24.103 2°49.678 22.4893 0.175868 0.977899 -3.020363
2011-07-08 06:03:50 51°24.126 2°49.673 22.4898 0.175971 0.9785 -3.020363
2011-07-08 06:03:55 51°24.144 2°49.667 22.4934 0.175971 0.9785 -3.020363
2011-07-08 06:03:59 51°24.159 2°49.664 22.4934 0.175971 0.9785 -3.020363
2011-07-08 06:04:05 51°24.182 2°49.658 22.4995 0.175868 0.977917 -3.020363
2011-07-08 06:04:10 51°24.201 2°49.653 22.4957 0.175868 0.977917 -3.020363
2011-07-08 06:04:15 51°24.219 2°49.648 22.4825 0.175868 0.977899 -3.020363
2011-07-08 06:04:19 51°24.234 2°49.644 22.5722 0.175971 0.978534 -3.020363
2011-07-08 06:04:25 51°24.256 2°49.637 22.557 0.175868 0.977934 -3.020363
2011-07-08 06:04:30 51°24.274 2°49.633 22.5532 0.175868 0.977951 -3.020363
2011-07-08 06:04:35 51°24.293 2°49.627 22.5467 0.175868 0.977951 -3.020363
2011-07-08 06:04:39 51°24.308 2°49.624 22.5443 0.175868 0.977951 -3.020363
2011-07-08 06:04:45 51°24.33 2°49.616 22.543 0.175868 0.977968 -3.020363
2011-07-08 06:04:50 51°24.348 2°49.611 22.5403 0.175868 0.977968 -3.020363
2011-07-08 06:04:55 51°24.367 2°49.605 22.5405 0.175868 0.977951 -3.020363
2011-07-08 06:04:59 51°24.382 2°49.601 22.5381 0.175868 0.977951 -3.020363
2011-07-08 06:05:04 51°24.4 2°49.596 22.5389 0.175971 0.978551 -3.020363
2011-07-08 06:05:10 51°24.422 2°49.589 22.5385 0.175971 0.978551 -3.020363
2011-07-08 06:05:15 51°24.441 2°49.585 22.5374 0.175868 0.977985 -3.020363
2011-07-08 06:05:19 51°24.456 2°49.578 22.5326 0.175868 0.977951 -3.020363
2011-07-08 06:05:25 51°24.478 2°49.575 22.5355 0.175868 0.978037 -3.020363
2011-07-08 06:05:30 51°24.496 2°49.568 22.5362 0.175868 0.978002 -3.020363
2011-07-08 06:05:35 51°24.514 2°49.565 22.5348 0.175868 0.978002 -3.020363
2011-07-08 06:05:39 51°24.529 2°49.559 22.5348 0.175868 0.978002 -3.020363
2011-07-08 06:05:44 51°24.547 2°49.555 22.5353 0.175868 0.97802 -3.020363
2011-07-08 06:05:50 51°24.569 2°49.548 22.535 0.175868 0.97802 -3.020363
2011-07-08 06:05:55 51°24.588 2°49.544 22.5358 0.175868 0.978054 -3.020363
2011-07-08 06:05:59 51°24.602 2°49.538 22.536 0.175868 0.978037 -3.020363
2011-07-08 06:06:04 51°24.621 2°49.534 22.5365 0.175868 0.978088 -3.020363
2011-07-08 06:06:10 51°24.643 2°49.528 22.537 0.175868 0.978088 -3.020363
2011-07-08 06:06:15 51°24.662 2°49.523 22.5364 0.175868 0.978088 -3.020363
2011-07-08 06:06:19 51°24.677 2°49.519 22.5371 0.175868 0.978157 -3.020363
2011-07-08 06:06:25 51°24.698 2°49.511 22.5379 0.175868 0.978157 -3.020363
2011-07-08 06:06:30 51°24.717 2°49.506 22.5366 0.175868 0.978191 -3.020363
2011-07-08 06:06:35 51°24.735 2°49.498 22.5381 0.175868 0.978191 -3.020363
2011-07-08 06:06:39 51°24.749 2°49.495 22.5376 0.175868 0.978191 -3.020363
2011-07-08 06:06:45 51°24.771 2°49.487 22.5393 0.175868 0.978226 -3.020363
2011-07-08 06:06:49 51°24.786 2°49.484 22.5399 0.175868 0.97826 -3.020363
2011-07-08 06:06:55 51°24.808 2°49.478 22.5388 0.175868 0.97826 -3.020363
2011-07-08 06:06:59 51°24.823 2°49.474 22.5396 0.175868 0.97826 -3.020363
2011-07-08 06:07:05 51°24.845 2°49.469 22.5404 0.175868 0.97826 -3.020363
2011-07-08 06:07:10 51°24.864 2°49.463 22.5403 0.175868 0.97826 -3.020363
2011-07-08 06:07:15 51°24.882 2°49.458 22.5407 0.175868 0.97826 -3.020363
2011-07-08 06:07:19 51°24.897 2°49.453 22.5414 0.175868 0.978243 -3.020363
2011-07-08 06:07:25 51°24.92 2°49.447 22.542 0.175868 0.978226 -3.020363
2011-07-08 06:07:30 51°24.938 2°49.442 22.5427 0.175868 0.978243 -3.020363
2011-07-08 06:07:35 51°24.957 2°49.437 22.5429 0.175868 0.978243 -3.020363
2011-07-08 06:07:39 51°24.972 2°49.433 22.5437 0.175868 0.978243 -3.020363
2011-07-08 06:07:44 51°24.99 2°49.43 22.5436 0.175868 0.978277 -3.020363
2011-07-08 06:07:50 51°25.012 2°49.421 22.545 0.175868 0.97826 -3.020363
2011-07-08 06:07:55 51°25.031 2°49.418 22.5445 0.175868 0.978294 -3.020363
2011-07-08 06:07:59 51°25.046 2°49.413 22.5452 0.175868 0.978312 -3.020363
2011-07-08 06:08:04 51°25.064 2°49.41 22.5452 0.175868 0.978329 -3.020363
2011-07-08 06:08:10 51°25.086 2°49.403 22.5462 0.175868 0.978329 -3.020363
2011-07-08 06:08:15 51°25.105 2°49.399 22.5457 0.175868 0.978346 -3.020363
2011-07-08 06:08:19 51°25.119 2°49.395 22.546 0.175868 0.97838 -3.020363
2011-07-08 06:08:25 51°25.141 2°49.389 22.5472 0.175868 0.97838 -3.020363
2011-07-08 06:08:30 51°25.159 2°49.383 22.5479 0.175868 0.978398 -3.020363
2011-07-08 06:08:35 51°25.178 2°49.377 22.5481 0.175868 0.978398 -3.020363
2011-07-08 06:08:39 51°25.192 2°49.372 22.5488 0.175868 0.978398 -3.020363
2011-07-08 06:08:44 51°25.211 2°49.367 22.5483 0.175868 0.978415 -3.020363
2011-07-08 06:08:50 51°25.232 2°49.357 22.5495 0.175868 0.978398 -3.020363
2011-07-08 06:08:55 51°25.251 2°49.352 22.5496 0.175868 0.978415 -3.020363
2011-07-08 06:08:59 51°25.265 2°49.346 22.5505 0.175868 0.978415 -3.020363
2011-07-08 06:09:05 51°25.287 2°49.338 22.551 0.175868 0.978432 -3.020363
2011-07-08 06:09:10 51°25.305 2°49.329 22.5516 0.175868 0.978432 -3.020363
2011-07-08 06:09:15 51°25.323 2°49.323 22.5519 0.175868 0.978449 -3.020363
2011-07-08 06:09:19 51°25.338 2°49.315 22.5526 0.175868 0.978432 -3.020363
2011-07-08 06:09:25 51°25.36 2°49.308 22.5526 0.175868 0.978484 -3.020363
2011-07-08 06:09:30 51°25.377 2°49.298 22.5529 0.175868 0.978466 -3.020363
2011-07-08 06:09:35 51°25.395 2°49.292 22.5536 0.175868 0.978484 -3.020363
2011-07-08 06:09:39 51°25.41 2°49.285 22.5541 0.175868 0.978484 -3.020363
2011-07-08 06:09:44 51°25.428 2°49.278 22.5548 0.175868 0.978501 -3.020363
2011-07-08 06:09:50 51°25.449 2°49.269 22.5556 0.175868 0.978501 -3.020363
2011-07-08 06:09:55 51°25.467 2°49.262 22.5551 0.175868 0.978518 -3.020363
2011-07-08 06:09:59 51°25.481 2°49.255 22.5562 0.175868 0.978518 -3.020363
2011-07-08 06:10:04 51°25.5 2°49.25 22.5568 0.175868 0.978552 -3.020363
2011-07-08 06:10:10 51°25.521 2°49.238 22.5572 0.175868 0.978552 -3.020363
2011-07-08 06:10:15 51°25.539 2°49.232 22.5578 0.175868 0.978552 -3.020363
2011-07-08 06:10:19 51°25.554 2°49.225 22.5583 0.175868 0.978569 -3.020363
2011-07-08 06:10:25 51°25.575 2°49.216 22.5591 0.175868 0.978552 -3.020363
2011-07-08 06:10:29 51°25.59 2°49.211 22.5593 0.175868 0.978569 -3.020363
2011-07-08 06:10:35 51°25.611 2°49.202 22.5599 0.175868 0.978552 -3.020363
2011-07-08 06:10:39 51°25.626 2°49.197 22.5609 0.175868 0.978552 -3.020363
2011-07-08 06:10:44 51°25.644 2°49.189 22.5609 0.175765 0.977969 -3.020363
2011-07-08 06:10:50 51°25.666 2°49.181 22.5619 0.175868 0.978587 -3.020363
2011-07-08 06:10:55 51°25.684 2°49.173 22.5623 0.175868 0.978587 -3.020363
2011-07-08 06:10:59 51°25.699 2°49.168 22.5629 0.175868 0.978604 -3.020363
2011-07-08 06:11:05 51°25.721 2°49.16 22.5631 0.175868 0.978621 -3.020363
2011-07-08 06:11:10 51°25.739 2°49.152 22.5638 0.175868 0.978621 -3.020363
2011-07-08 06:11:15 51°25.758 2°49.145 22.5644 0.175868 0.978621 -3.020363
2011-07-08 06:11:19 51°25.773 2°49.14 22.5647 0.175765 0.978038 -3.020363
2011-07-08 06:11:25 51°25.795 2°49.133 22.5659 0.175868 0.978655 -3.020363
2011-07-08 06:11:30 51°25.813 2°49.126 22.5666 0.175868 0.978673 -3.020363
2011-07-08 06:11:35 51°25.832 2°49.12 22.5667 0.175765 0.978106 -3.020363
2011-07-08 06:11:39 51°25.846 2°49.114 22.5674 0.175765 0.978106 -3.020363
2011-07-08 06:11:45 51°25.869 2°49.107 22.5672 0.175868 0.978724 -3.020363
2011-07-08 06:11:50 51°25.887 2°49.098 22.5681 0.175868 0.978741 -3.020363
2011-07-08 06:11:55 51°25.905 2°49.092 22.5685 0.175868 0.978741 -3.020363
2011-07-08 06:11:59 51°25.92 2°49.085 22.5695 0.175765 0.978158 -3.020363
2011-07-08 06:12:04 51°25.938 2°49.078 22.5698 0.175868 0.978759 -3.020363
2011-07-08 06:12:10 51°25.959 2°49.067 22.5703 0.175868 0.978759 -3.020363
2011-07-08 06:12:15 51°25.977 2°49.059 22.5708 0.175868 0.978759 -3.020363
2011-07-08 06:12:19 51°25.992 2°49.053 22.5713 0.175868 0.978759 -3.020363
2011-07-08 06:12:24 51°26.01 2°49.046 22.572 0.175868 0.978759 -3.020363
2011-07-08 06:12:30 51°26.032 2°49.037 22.5724 0.175765 0.978175 -3.020363
2011-07-08 06:12:35 51°26.05 2°49.03 22.5731 0.175868 0.978759 -3.020363
2011-07-08 06:12:39 51°26.065 2°49.022 22.5736 0.175868 0.978759 -3.020363
2011-07-08 06:12:45 51°26.087 2°49.015 22.5736 0.175765 0.978192 -3.020363
2011-07-08 06:12:49 51°26.101 2°49.008 22.5743 0.175765 0.978192 -3.020363
2011-07-08 06:12:55 51°26.124 2°49.001 22.5747 0.175765 0.978261 -3.020363
2011-07-08 06:12:59 51°26.138 2°48.993 22.5755 0.175868 0.978845 -3.020363
2011-07-08 06:13:05 51°26.16 2°48.984 22.5758 0.175765 0.978244 -3.020363
2011-07-08 06:13:10 51°26.178 2°48.976 22.5765 0.175765 0.978244 -3.020363
2011-07-08 06:13:15 51°26.196 2°48.969 22.5768 0.175765 0.978261 -3.020363
2011-07-08 06:13:19 51°26.21 2°48.963 22.5779 0.175765 0.978244 -3.020363
2011-07-08 06:13:25 51°26.232 2°48.955 22.5778 0.175765 0.978278 -3.020363
2011-07-08 06:13:30 51°26.25 2°48.946 22.5778 0.175765 0.978261 -3.020363
2011-07-08 06:13:35 51°26.269 2°48.94 22.5783 0.175765 0.978296 -3.020363
2011-07-08 06:13:39 51°26.283 2°48.934 22.58 0.175765 0.978296 -3.020363
2011-07-08 06:13:45 51°26.305 2°48.924 22.5793 0.175765 0.978296 -3.020363
2011-07-08 06:13:50 51°26.323 2°48.918 22.58 0.175765 0.978296 -3.020363
2011-07-08 06:13:55 51°26.341 2°48.91 22.5808 0.175765 0.978313 -3.020363
2011-07-08 06:13:59 51°26.355 2°48.904 22.5812 0.175765 0.97833 -3.020363
2011-07-08 06:14:04 51°26.373 2°48.897 22.5826 0.175765 0.978364 -3.020363
2011-07-08 06:14:10 51°26.396 2°48.89 22.5825 0.175765 0.978364 -3.020363
2011-07-08 06:14:15 51°26.413 2°48.88 22.5827 0.175765 0.978364 -3.020363
2011-07-08 06:14:19 51°26.428 2°48.876 22.5831 0.175765 0.978416 -3.020363
2011-07-08 06:14:24 51°26.446 2°48.866 22.5833 0.175765 0.978416 -3.020363
2011-07-08 06:14:30 51°26.468 2°48.857 22.5844 0.175765 0.978433 -3.020363
2011-07-08 06:14:35 51°26.486 2°48.848 22.5845 0.175765 0.978433 -3.020363
2011-07-08 06:14:39 51°26.501 2°48.843 22.5807 0.175765 0.978433 -3.020363
2011-07-08 06:14:44 51°26.519 2°48.836 22.5844 0.175765 0.978502 -3.020363
2011-07-08 06:14:50 51°26.539 2°48.824 22.5854 0.175765 0.978468 -3.020363
2011-07-08 06:14:55 51°26.557 2°48.815 22.5852 0.175765 0.978468 -3.020363
2011-07-08 06:14:59 51°26.571 2°48.809 22.586 0.175765 0.978485 -3.020363
2011-07-08 06:15:05 51°26.592 2°48.798 22.5866 0.175765 0.978468 -3.020363
2011-07-08 06:15:10 51°26.61 2°48.791 22.5871 0.175765 0.978468 -3.020363
2011-07-08 06:15:15 51°26.628 2°48.781 22.5872 0.175765 0.978485 -3.020363
2011-07-08 06:15:19 51°26.643 2°48.776 22.5869 0.175765 0.978502 -3.020363
2011-07-08 06:15:24 51°26.661 2°48.768 22.5881 0.175765 0.978519 -3.020363
2011-07-08 06:15:30 51°26.682 2°48.758 22.588 0.175765 0.978519 -3.020363
2011-07-08 06:15:35 51°26.7 2°48.752 22.5886 0.175765 0.978571 -3.020363
2011-07-08 06:15:40 51°26.718 2°48.742 22.5891 0.175765 0.978571 -3.020363
2011-07-08 06:15:45 51°26.736 2°48.733 22.5909 0.175765 0.978571 -3.020363
2011-07-08 06:15:50 51°26.754 2°48.724 22.5901 0.175765 0.978588 -3.020363
2011-07-08 06:15:55 51°26.772 2°48.716 22.5907 0.175765 0.978605 -3.020363
2011-07-08 06:15:59 51°26.786 2°48.709 22.5904 0.175765 0.978622 -3.020363
2011-07-08 06:16:05 51°26.808 2°48.7 22.5925 0.175765 0.97864 -3.020363
2011-07-08 06:16:10 51°26.826 2°48.692 22.5915 0.175765 0.97864 -3.020363
2011-07-08 06:16:15 51°26.844 2°48.686 22.5926 0.175765 0.978657 -3.020363
2011-07-08 06:16:19 51°26.858 2°48.678 22.5937 0.175765 0.97864 -3.020363
2011-07-08 06:16:25 51°26.88 2°48.671 22.5942 0.175765 0.978691 -3.020363
2011-07-08 06:16:30 51°26.898 2°48.662 22.5944 0.175765 0.978674 -3.020363
2011-07-08 06:16:35 51°26.916 2°48.657 22.5935 0.175765 0.978708 -3.020363
2011-07-08 06:16:39 51°26.931 2°48.651 22.5937 0.175765 0.978708 -3.020363
2011-07-08 06:16:44 51°26.948 2°48.643 22.5948 0.175765 0.978726 -3.020363
2011-07-08 06:16:50 51°26.97 2°48.634 22.5954 0.175765 0.978743 -3.020363
2011-07-08 06:16:55 51°26.988 2°48.625 22.5953 0.175765 0.978726 -3.020363
2011-07-08 06:16:59 51°27.003 2°48.62 22.595 0.175765 0.978777 -3.020363
2011-07-08 06:17:04 51°27.02 2°48.612 22.5976 0.175765 0.97876 -3.020363
2011-07-08 06:17:10 51°27.042 2°48.602 22.5964 0.175765 0.97876 -3.020363
2011-07-08 06:17:15 51°27.06 2°48.595 22.5974 0.175765 0.978777 -3.020363
2011-07-08 06:17:19 51°27.074 2°48.588 22.5975 0.175765 0.978777 -3.020363
2011-07-08 06:17:25 51°27.096 2°48.579 22.5994 0.175765 0.978795 -3.020363
2011-07-08 06:17:30 51°27.114 2°48.57 22.5998 0.175765 0.978812 -3.020363
2011-07-08 06:17:35 51°27.132 2°48.563 22.5998 0.175765 0.978829 -3.020363
2011-07-08 06:17:39 51°27.147 2°48.557 22.6 0.175765 0.978829 -3.020363
2011-07-08 06:17:44 51°27.165 2°48.548 22.6002 0.175765 0.978846 -3.020363
2011-07-08 06:17:50 51°27.187 2°48.54 22.5995 0.175765 0.978846 -3.020363
2011-07-08 06:17:55 51°27.205 2°48.532 22.6008 0.175765 0.978898 -3.020363
2011-07-08 06:17:59 51°27.219 2°48.525 22.6017 0.175765 0.978898 -3.020363
2011-07-08 06:18:05 51°27.241 2°48.515 22.6026 0.175765 0.978898 -3.020363
2011-07-08 06:18:10 51°27.259 2°48.507 22.603 0.175765 0.978898 -3.020363
2011-07-08 06:18:15 51°27.276 2°48.498 22.6036 0.175765 0.978915 -3.020363
2011-07-08 06:18:19 51°27.291 2°48.492 22.6032 0.175765 0.978932 -3.020363
2011-07-08 06:18:25 51°27.312 2°48.481 22.605 0.175765 0.978932 -3.020363
2011-07-08 06:18:30 51°27.33 2°48.474 22.6039 0.175662 0.978383 -3.020363
2011-07-08 06:18:35 51°27.348 2°48.464 22.6044 0.175662 0.978366 -3.020363
2011-07-08 06:18:39 51°27.362 2°48.459 22.6031 0.175662 0.978366 -3.020363
2011-07-08 06:18:44 51°27.38 2°48.45 22.6056 0.175765 0.979036 -3.020363
2011-07-08 06:18:50 51°27.402 2°48.441 22.606 0.175765 0.979036 -3.020363
2011-07-08 06:18:55 51°27.42 2°48.434 22.6071 0.175765 0.979053 -3.020363
2011-07-08 06:18:59 51°27.434 2°48.428 22.6075 0.175765 0.97907 -3.020363
2011-07-08 06:19:04 51°27.451 2°48.419 22.6075 0.175765 0.979053 -3.020363
2011-07-08 06:19:10 51°27.473 2°48.411 22.6084 0.175765 0.979053 -3.020363
2011-07-08 06:19:15 51°27.491 2°48.404 22.6085 0.175662 0.978469 -3.020363
2011-07-08 06:19:19 51°27.505 2°48.398 22.6089 0.175662 0.978469 -3.020363
2011-07-08 06:19:25 51°27.527 2°48.389 22.6086 0.175662 0.978469 -3.020363
2011-07-08 06:19:29 51°27.541 2°48.383 22.6087 0.175662 0.978503 -3.020363
2011-07-08 06:19:35 51°27.563 2°48.375 22.6095 0.175662 0.978486 -3.020363
2011-07-08 06:19:39 51°27.578 2°48.369 22.6095 0.175662 0.978486 -3.020363
2011-07-08 06:19:44 51°27.595 2°48.361 22.611 0.175662 0.978521 -3.020363
2011-07-08 06:19:50 51°27.617 2°48.353 22.6114 0.175662 0.978521 -3.020363
2011-07-08 06:19:55 51°27.635 2°48.346 22.6118 0.175662 0.978538 -3.020363
2011-07-08 06:19:59 51°27.649 2°48.34 22.6112 0.175662 0.978555 -3.020363
2011-07-08 06:20:05 51°27.671 2°48.332 22.612 0.175662 0.978589 -3.020363
2011-07-08 06:20:10 51°27.689 2°48.323 22.611 0.175662 0.978589 -3.020363
2011-07-08 06:20:15 51°27.707 2°48.316 22.612 0.175662 0.978589 -3.020363
2011-07-08 06:20:19 51°27.722 2°48.31 22.6133 0.175662 0.978624 -3.020363
2011-07-08 06:20:25 51°27.743 2°48.3 22.6129 0.175662 0.978624 -3.020363
2011-07-08 06:20:30 51°27.762 2°48.292 22.6151 0.175662 0.978658 -3.020363
2011-07-08 06:20:35 51°27.779 2°48.284 22.6125 0.175662 0.978658 -3.020363
2011-07-08 06:20:39 51°27.794 2°48.279 22.6139 0.175662 0.978658 -3.020363
2011-07-08 06:20:45 51°27.816 2°48.269 22.6143 0.175662 0.978676 -3.020363
2011-07-08 06:20:50 51°27.834 2°48.262 22.615 0.175662 0.97871 -3.020363
2011-07-08 06:20:55 51°27.852 2°48.252 22.6165 0.175662 0.97871 -3.020363
2011-07-08 06:20:59 51°27.866 2°48.246 22.6162 0.175662 0.978745 -3.020363
2011-07-08 06:21:04 51°27.884 2°48.24 22.6188 0.175662 0.978727 -3.020363
2011-07-08 06:21:10 51°27.906 2°48.23 22.6171 0.175662 0.978727 -3.020363
2011-07-08 06:21:15 51°27.924 2°48.224 22.6177 0.175662 0.978762 -3.020363
2011-07-08 06:21:19 51°27.938 2°48.217 22.618 0.175662 0.978762 -3.020363
2011-07-08 06:21:24 51°27.957 2°48.21 22.6162 0.175662 0.978779 -3.020363
2011-07-08 06:21:30 51°27.978 2°48.201 22.6191 0.175662 0.978779 -3.020363
2011-07-08 06:21:35 51°27.996 2°48.193 22.6191 0.175662 0.978796 -3.020363
2011-07-08 06:21:39 51°28.011 2°48.188 22.6198 0.175662 0.978796 -3.020363
2011-07-08 06:21:45 51°28.032 2°48.179 22.6196 0.175662 0.978796 -3.020363
2011-07-08 06:21:49 51°28.047 2°48.174 22.6215 0.175662 0.978831 -3.020363
2011-07-08 06:21:55 51°28.069 2°48.166 22.6215 0.175662 0.978848 -3.020363
2011-07-08 06:21:59 51°28.083 2°48.16 22.6226 0.175662 0.978865 -3.020363
2011-07-08 06:22:05 51°28.105 2°48.152 22.6216 0.175662 0.978865 -3.020363
2011-07-08 06:22:10 51°28.124 2°48.144 22.6193 0.175662 0.978865 -3.020363
2011-07-08 06:22:15 51°28.142 2°48.136 22.6234 0.175662 0.978917 -3.020363
2011-07-08 06:22:19 51°28.156 2°48.127 22.6221 0.175662 0.9789 -3.020363
2011-07-08 06:22:25 51°28.178 2°48.118 22.6238 0.175662 0.978934 -3.020363
2011-07-08 06:22:30 51°28.195 2°48.108 22.6234 0.175662 0.978934 -3.020363
2011-07-08 06:22:35 51°28.214 2°48.102 22.622 0.175662 0.978969 -3.020363
2011-07-08 06:22:39 51°28.228 2°48.093 22.626 0.175662 0.978969 -3.020363
2011-07-08 06:22:45 51°28.25 2°48.084 22.6261 0.175662 0.978969 -3.020363
2011-07-08 06:22:50 51°28.267 2°48.075 22.6258 0.175662 0.978986 -3.020363
2011-07-08 06:22:55 51°28.285 2°48.067 22.6256 0.175662 0.979003 -3.020363
2011-07-08 06:22:59 51°28.3 2°48.061 22.626 0.175662 0.979003 -3.020363
2011-07-08 06:23:04 51°28.318 2°48.054 22.6277 0.175662 0.97902 -3.020363
2011-07-08 06:23:10 51°28.339 2°48.045 22.6272 0.175662 0.97902 -3.020363
2011-07-08 06:23:15 51°28.358 2°48.04 22.6281 0.175662 0.979037 -3.020363
2011-07-08 06:23:19 51°28.373 2°48.034 22.629 0.175662 0.979072 -3.020363
2011-07-08 06:23:24 51°28.391 2°48.027 22.6293 0.175662 0.979072 -3.020363
2011-07-08 06:23:30 51°28.413 2°48.018 22.6264 0.175662 0.979089 -3.020363
2011-07-08 06:23:35 51°28.432 2°48.012 22.6285 0.175662 0.979106 -3.020363
2011-07-08 06:23:39 51°28.446 2°48.005 22.6291 0.175662 0.979106 -3.020363
2011-07-08 06:23:44 51°28.464 2°47.999 22.6304 0.175662 0.979106 -3.020363
2011-07-08 06:23:50 51°28.486 2°47.99 22.6303 0.175662 0.979106 -3.020363
2011-07-08 06:23:55 51°28.504 2°47.985 22.6297 0.175662 0.979141 -3.020363
2011-07-08 06:23:59 51°28.518 2°47.978 22.6287 0.175662 0.979141 -3.020363
2011-07-08 06:24:05 51°28.54 2°47.971 22.6327 0.175662 0.979141 -3.020363
2011-07-08 06:24:10 51°28.558 2°47.964 22.6317 0.175662 0.979141 -3.020363
2011-07-08 06:24:15 51°28.576 2°47.958 22.6326 0.175662 0.979158 -3.020363
2011-07-08 06:24:19 51°28.591 2°47.954 22.6313 0.175662 0.979175 -3.020363
2011-07-08 06:24:24 51°28.609 2°47.948 22.6339 0.175662 0.979193 -3.020363
2011-07-08 06:24:30 51°28.631 2°47.941 22.6339 0.175662 0.97921 -3.020363
2011-07-08 06:24:35 51°28.649 2°47.934 22.6336 0.175662 0.979227 -3.020363
2011-07-08 06:24:40 51°28.667 2°47.93 22.6338 0.175662 0.979227 -3.020363
2011-07-08 06:24:45 51°28.685 2°47.922 22.6343 0.175662 0.979244 -3.020363
2011-07-08 06:24:50 51°28.704 2°47.918 22.6329 0.17556 0.978677 -3.020363
2011-07-08 06:24:55 51°28.722 2°47.909 22.6349 0.175662 0.979279 -3.020363
2011-07-08 06:24:59 51°28.737 2°47.904 22.6351 0.175662 0.979313 -3.020363
2011-07-08 06:25:05 51°28.758 2°47.895 22.6365 0.175662 0.979296 -3.020363
2011-07-08 06:25:10 51°28.777 2°47.89 22.6365 0.175662 0.979296 -3.020363
2011-07-08 06:25:15 51°28.794 2°47.882 22.6382 0.175662 0.979348 -3.020363
2011-07-08 06:25:19 51°28.809 2°47.877 22.6379 0.17556 0.978729 -3.020363
2011-07-08 06:25:25 51°28.831 2°47.869 22.6391 0.175662 0.979365 -3.020363
2011-07-08 06:25:30 51°28.849 2°47.862 22.6379 0.175662 0.979365 -3.020363
2011-07-08 06:25:35 51°28.867 2°47.856 22.6394 0.175662 0.9794 -3.020363
2011-07-08 06:25:39 51°28.881 2°47.85 22.6398 0.175662 0.9794 -3.020363
2011-07-08 06:25:44 51°28.899 2°47.843 22.6378 0.17556 0.978798 -3.020363
2011-07-08 06:25:50 51°28.922 2°47.836 22.6351 0.17556 0.978798 -3.020363
2011-07-08 06:25:55 51°28.94 2°47.828 22.6397 0.17556 0.978832 -3.020363
2011-07-08 06:25:59 51°28.954 2°47.821 22.6414 0.175662 0.979434 -3.020363
2011-07-08 06:26:04 51°28.972 2°47.813 22.643 0.175662 0.979434 -3.020363
2011-07-08 06:26:10 51°28.993 2°47.803 22.6398 0.175662 0.979434 -3.020363
2011-07-08 06:26:15 51°29.012 2°47.796 22.6432 0.17556 0.97885 -3.020363
2011-07-08 06:26:19 51°29.025 2°47.787 22.644 0.17556 0.97885 -3.020363
2011-07-08 06:26:25 51°29.047 2°47.778 22.6435 0.175662 0.979469 -3.020363
2011-07-08 06:26:30 51°29.064 2°47.77 22.6432 0.17556 0.978884 -3.020363
2011-07-08 06:26:35 51°29.082 2°47.761 22.6448 0.17556 0.978901 -3.020363
2011-07-08 06:26:39 51°29.097 2°47.755 22.6441 0.17556 0.978901 -3.020363
2011-07-08 06:26:44 51°29.114 2°47.745 22.6457 0.17556 0.978936 -3.020363
2011-07-08 06:26:50 51°29.136 2°47.736 22.6452 0.17556 0.978936 -3.020363
2011-07-08 06:26:55 51°29.154 2°47.727 22.646 0.17556 0.978953 -3.020363
2011-07-08 06:27:00 51°29.172 2°47.719 22.6454 0.17556 0.979005 -3.020363
2011-07-08 06:27:05 51°29.19 2°47.71 22.6483 0.17556 0.978988 -3.020363
2011-07-08 06:27:10 51°29.207 2°47.701 22.6424 0.17556 0.978988 -3.020363
2011-07-08 06:27:15 51°29.225 2°47.693 22.649 0.17556 0.979039 -3.020363
2011-07-08 06:27:19 51°29.239 2°47.685 22.6415 0.17556 0.978988 -3.020363
2011-07-08 06:27:25 51°29.261 2°47.678 22.6484 0.17556 0.979074 -3.020363
2011-07-08 06:27:30 51°29.278 2°47.669 22.6455 0.17556 0.979074 -3.020363
2011-07-08 06:27:35 51°29.297 2°47.663 22.6477 0.17556 0.979091 -3.020363
2011-07-08 06:27:39 51°29.311 2°47.655 22.6484 0.17556 0.979091 -3.020363
2011-07-08 06:27:44 51°29.328 2°47.647 22.6479 0.17556 0.979074 -3.020363
2011-07-08 06:27:50 51°29.35 2°47.638 22.6497 0.17556 0.979108 -3.020363
2011-07-08 06:27:55 51°29.367 2°47.629 22.6484 0.17556 0.979074 -3.020363
2011-07-08 06:27:59 51°29.382 2°47.624 22.6496 0.17556 0.979091 -3.020363
2011-07-08 06:28:04 51°29.4 2°47.617 22.6509 0.17556 0.979074 -3.020363
2011-07-08 06:28:10 51°29.421 2°47.608 22.6483 0.17556 0.979074 -3.020363
2011-07-08 06:28:15 51°29.439 2°47.601 22.6501 0.17556 0.979091 -3.020363
2011-07-08 06:28:19 51°29.453 2°47.597 22.6487 0.17556 0.979108 -3.020363
2011-07-08 06:28:24 51°29.471 2°47.589 22.6507 0.17556 0.979126 -3.020363
2011-07-08 06:28:30 51°29.493 2°47.581 22.6488 0.17556 0.97916 -3.020363
2011-07-08 06:28:35 51°29.511 2°47.572 22.6514 0.17556 0.979177 -3.020363
2011-07-08 06:28:39 51°29.526 2°47.566 22.6527 0.17556 0.979177 -3.020363
2011-07-08 06:28:45 51°29.548 2°47.556 22.6527 0.17556 0.979195 -3.020363
2011-07-08 06:28:50 51°29.566 2°47.548 22.653 0.17556 0.979212 -3.020363
2011-07-08 06:28:55 51°29.584 2°47.54 22.6536 0.17556 0.979229 -3.020363
2011-07-08 06:28:59 51°29.599 2°47.534 22.6549 0.17556 0.979264 -3.020363
2011-07-08 06:29:05 51°29.62 2°47.524 22.6546 0.17556 0.979247 -3.020363
2011-07-08 06:29:10 51°29.638 2°47.518 22.6538 0.17556 0.979247 -3.020363
2011-07-08 06:29:15 51°29.656 2°47.509 22.6563 0.17556 0.979316 -3.020363
2011-07-08 06:29:19 51°29.671 2°47.505 22.653 0.17556 0.979316 -3.020363
2011-07-08 06:29:25 51°29.692 2°47.494 22.6549 0.17556 0.979333 -3.020363
2011-07-08 06:29:30 51°29.711 2°47.488 22.6558 0.17556 0.979385 -3.020363
2011-07-08 06:29:35 51°29.728 2°47.479 22.6587 0.17556 0.97935 -3.020363
2011-07-08 06:29:39 51°29.743 2°47.474 22.6558 0.17556 0.97935 -3.020363